Wetterdaten: Mittwoch, 05.07.2023
Datum Zeit Temp. Aussen Temp. o. S. Temp +5cm Feuchte Auss Luftdruck Regen Sonnenschein Regendauer Solar Windben Empfang
05.07.2023 00:00 17,8 C 16,7 C 13,9 C 85 % 1008,8 hPa 0,0 l/m 0 min 0 min 0 W/m 3,2 km/h (1 Bft) 95,65 %
05.07.2023 00:02 17,8 C 16,7 C 13,3 C 85 % 1008,7 hPa 0,0 l/m 0 min 0 min 0 W/m 6,4 km/h (2 Bft) 95,35 %
05.07.2023 00:04 17,8 C 16,7 C 13,3 C 85 % 1008,6 hPa 0,0 l/m 0 min 0 min 0 W/m 3,2 km/h (1 Bft) 97,87 %
05.07.2023 00:08 17,7 C 16,7 C 13,3 C 85 % 1008,7 hPa 0,0 l/m 0 min 0 min 0 W/m 6,4 km/h (2 Bft) 95,88 %
05.07.2023 00:10 17,7 C 16,7 C 13,3 C 85 % 1008,6 hPa 0,0 l/m 0 min 0 min 0 W/m 3,2 km/h (1 Bft) 97,87 %
05.07.2023 00:12 17,7 C 16,7 C 13,3 C 85 % 1008,6 hPa 0,0 l/m 0 min 0 min 0 W/m 3,2 km/h (1 Bft) 97,87 %
05.07.2023 00:14 17,7 C 16,7 C 13,3 C 86 % 1008,5 hPa 0,0 l/m 0 min 0 min 0 W/m 3,2 km/h (1 Bft) 97,83 %
05.07.2023 00:16 17,7 C 16,7 C 13,3 C 86 % 1008,4 hPa 0,0 l/m 0 min 0 min 0 W/m 3,2 km/h (1 Bft) 97,87 %
05.07.2023 00:18 17,7 C 16,7 C 13,9 C 86 % 1008,4 hPa 0,0 l/m 0 min 0 min 0 W/m 3,2 km/h (1 Bft) 95,74 %
05.07.2023 00:20 17,6 C 16,7 C 13,9 C 86 % 1008,4 hPa 0,0 l/m 0 min 0 min 0 W/m 0,0 km/h (0 Bft) 97,87 %
05.07.2023 00:22 17,6 C 16,7 C 13,9 C 86 % 1008,4 hPa 0,0 l/m 0 min 0 min 0 W/m 0,0 km/h (0 Bft) 97,87 %
05.07.2023 00:24 17,6 C 16,7 C 13,3 C 86 % 1008,4 hPa 0,0 l/m 0 min 0 min 0 W/m 3,2 km/h (1 Bft) 95,74 %
05.07.2023 00:26 17,6 C 16,7 C 13,3 C 86 % 1008,3 hPa 0,0 l/m 0 min 0 min 0 W/m 3,2 km/h (1 Bft) 97,92 %
05.07.2023 00:28 17,6 C 16,7 C 13,3 C 86 % 1008,2 hPa 0,0 l/m 0 min 0 min 0 W/m 3,2 km/h (1 Bft) 97,14 %
05.07.2023 00:30 17,6 C 16,7 C 13,3 C 86 % 1008,1 hPa 0,0 l/m 0 min 0 min 0 W/m 3,2 km/h (1 Bft) 96,55 %
05.07.2023 00:32 17,6 C 16,7 C 13,3 C 86 % 1008,2 hPa 0,0 l/m 0 min 0 min 0 W/m 3,2 km/h (1 Bft) 94,29 %
05.07.2023 00:34 17,6 C 16,7 C 13,3 C 86 % 1008,1 hPa 0,0 l/m 0 min 0 min 0 W/m 3,2 km/h (1 Bft) 97,87 %
05.07.2023 00:36 17,6 C 16,7 C 13,3 C 86 % 1008,0 hPa 0,0 l/m 0 min 0 min 0 W/m 0,0 km/h (0 Bft) 97,87 %
05.07.2023 00:38 17,6 C 16,7 C 13,3 C 86 % 1008,0 hPa 0,0 l/m 0 min 0 min 0 W/m 0,0 km/h (0 Bft) 97,87 %
05.07.2023 00:40 17,6 C 16,7 C 13,3 C 86 % 1008,0 hPa 0,0 l/m 0 min 0 min 0 W/m 3,2 km/h (1 Bft) 97,87 %
05.07.2023 00:42 17,6 C 16,7 C 13,3 C 86 % 1008,0 hPa 0,0 l/m 0 min 0 min 0 W/m 3,2 km/h (1 Bft) 97,87 %
05.07.2023 00:44 17,6 C 16,7 C 13,3 C 87 % 1008,0 hPa 0,0 l/m 0 min 0 min 0 W/m 3,2 km/h (1 Bft) 97,92 %
05.07.2023 00:46 17,6 C 16,7 C 13,9 C 87 % 1008,0 hPa 0,0 l/m 0 min 0 min 0 W/m 3,2 km/h (1 Bft) 97,83 %
05.07.2023 00:48 17,6 C 16,7 C 13,3 C 87 % 1008,0 hPa 0,0 l/m 0 min 0 min 0 W/m 0,0 km/h (0 Bft) 95,74 %
05.07.2023 00:50 17,6 C 16,7 C 13,3 C 87 % 1007,9 hPa 0,0 l/m 0 min 0 min 0 W/m 0,0 km/h (0 Bft) 95,74 %
05.07.2023 00:52 17,6 C 16,7 C 13,3 C 87 % 1007,9 hPa 0,0 l/m 0 min 0 min 0 W/m 3,2 km/h (1 Bft) 95,74 %
05.07.2023 00:54 17,6 C 16,7 C 13,3 C 87 % 1007,9 hPa 0,0 l/m 0 min 0 min 0 W/m 3,2 km/h (1 Bft) 95,74 %
05.07.2023 00:56 17,6 C 16,7 C 13,3 C 87 % 1007,8 hPa 0,0 l/m 0 min 0 min 0 W/m 3,2 km/h (1 Bft) 97,87 %
05.07.2023 00:58 17,6 C 16,7 C 13,3 C 87 % 1007,7 hPa 0,0 l/m 0 min 0 min 0 W/m 3,2 km/h (1 Bft) 97,87 %
05.07.2023 01:00 17,6 C 16,7 C 13,3 C 87 % 1007,7 hPa 0,0 l/m 0 min 0 min 0 W/m 3,2 km/h (1 Bft) 95,65 %
05.07.2023 01:02 17,6 C 16,7 C 13,3 C 87 % 1007,8 hPa 0,0 l/m 0 min 0 min 0 W/m 3,2 km/h (1 Bft) 97,87 %
05.07.2023 01:04 17,6 C 16,7 C 13,3 C 87 % 1007,7 hPa 0,0 l/m 0 min 0 min 0 W/m 3,2 km/h (1 Bft) 95,74 %
05.07.2023 01:06 17,5 C 16,7 C 13,3 C 87 % 1007,7 hPa 0,0 l/m 0 min 0 min 0 W/m 12,9 km/h (3 Bft) 98,31 %
05.07.2023 01:08 17,5 C 16,7 C 13,3 C 87 % 1007,7 hPa 0,0 l/m 0 min 0 min 0 W/m 12,9 km/h (3 Bft) 97,14 %
05.07.2023 01:10 17,5 C 16,7 C 13,3 C 87 % 1007,7 hPa 0,0 l/m 0 min 2 min 0 W/m 6,4 km/h (2 Bft) 97,87 %
05.07.2023 01:12 17,5 C 16,7 C 13,3 C 87 % 1007,7 hPa 0,0 l/m 0 min 2 min 0 W/m 6,4 km/h (2 Bft) 95,74 %
05.07.2023 01:14 17,5 C 16,7 C 13,3 C 87 % 1007,8 hPa 0,0 l/m 0 min 2 min 0 W/m 9,7 km/h (2 Bft) 97,83 %
05.07.2023 01:16 17,5 C 16,7 C 12,8 C 87 % 1007,8 hPa 0,0 l/m 0 min 2 min 0 W/m 3,2 km/h (1 Bft) 95,74 %
05.07.2023 01:18 17,6 C 16,7 C 12,8 C 87 % 1007,8 hPa 0,2 l/m 0 min 2 min 0 W/m 3,2 km/h (1 Bft) 97,87 %
05.07.2023 01:20 17,6 C 16,7 C 12,8 C 87 % 1007,8 hPa 0,0 l/m 0 min 2 min 0 W/m 6,4 km/h (2 Bft) 97,87 %
05.07.2023 01:22 17,6 C 16,7 C 12,8 C 88 % 1007,7 hPa 0,0 l/m 0 min 0 min 0 W/m 6,4 km/h (2 Bft) 97,87 %
05.07.2023 01:24 17,6 C 16,7 C 12,8 C 88 % 1007,7 hPa 0,0 l/m 0 min 0 min 0 W/m 6,4 km/h (2 Bft) 95,74 %
05.07.2023 01:26 17,6 C 16,7 C 12,8 C 88 % 1007,6 hPa 0,0 l/m 0 min 2 min 0 W/m 6,4 km/h (2 Bft) 100,00 %
05.07.2023 01:28 17,5 C 16,7 C 12,8 C 88 % 1007,6 hPa 0,0 l/m 0 min 2 min 0 W/m 3,2 km/h (1 Bft) 97,83 %
05.07.2023 01:30 17,5 C 16,7 C 12,8 C 88 % 1007,6 hPa 0,0 l/m 0 min 2 min 0 W/m 3,2 km/h (1 Bft) 100,00 %
05.07.2023 01:32 17,5 C 16,7 C 12,8 C 88 % 1007,5 hPa 0,0 l/m 0 min 2 min 0 W/m 3,2 km/h (1 Bft) 97,87 %
05.07.2023 01:34 17,5 C 16,7 C 12,8 C 88 % 1007,5 hPa 0,0 l/m 0 min 0 min 0 W/m 3,2 km/h (1 Bft) 97,87 %
05.07.2023 01:36 17,5 C 16,7 C 12,8 C 88 % 1007,4 hPa 0,0 l/m 0 min 0 min 0 W/m 3,2 km/h (1 Bft) 97,87 %
05.07.2023 01:38 17,5 C 16,7 C 12,8 C 88 % 1007,4 hPa 0,0 l/m 0 min 2 min 0 W/m 3,2 km/h (1 Bft) 97,87 %
05.07.2023 01:40 17,5 C 16,7 C 12,8 C 88 % 1007,4 hPa 0,0 l/m 0 min 0 min 0 W/m 12,9 km/h (3 Bft) 97,83 %
05.07.2023 01:42 17,4 C 16,1 C 12,8 C 88 % 1007,3 hPa 0,0 l/m 0 min 0 min 0 W/m 12,9 km/h (3 Bft) 97,87 %
05.07.2023 01:44 17,4 C 16,1 C 12,8 C 89 % 1007,3 hPa 0,0 l/m 0 min 0 min 0 W/m 6,4 km/h (2 Bft) 100,00 %
05.07.2023 01:46 17,4 C 16,1 C 12,8 C 89 % 1007,3 hPa 0,0 l/m 0 min 0 min 0 W/m 6,4 km/h (2 Bft) 95,74 %
05.07.2023 01:48 17,4 C 16,1 C 12,8 C 89 % 1007,2 hPa 0,0 l/m 0 min 2 min 0 W/m 12,9 km/h (3 Bft) 100,00 %
05.07.2023 01:50 17,4 C 16,1 C 12,2 C 89 % 1007,2 hPa 0,0 l/m 0 min 2 min 0 W/m 12,9 km/h (3 Bft) 100,00 %
05.07.2023 01:52 17,4 C 16,1 C 12,2 C 89 % 1007,1 hPa 0,0 l/m 0 min 2 min 0 W/m 6,4 km/h (2 Bft) 97,87 %
05.07.2023 01:54 17,3 C 16,1 C 12,8 C 89 % 1007,1 hPa 0,0 l/m 0 min 2 min 0 W/m 6,4 km/h (2 Bft) 100,00 %
05.07.2023 01:56 17,4 C 16,1 C 12,2 C 89 % 1007,1 hPa 0,0 l/m 0 min 2 min 0 W/m 16,1 km/h (3 Bft) 100,00 %
05.07.2023 01:58 17,3 C 16,1 C 12,2 C 90 % 1007,0 hPa 0,0 l/m 0 min 2 min 0 W/m 12,9 km/h (3 Bft) 97,87 %
05.07.2023 02:00 17,3 C 16,1 C 12,2 C 90 % 1007,0 hPa 0,0 l/m 0 min 0 min 0 W/m 12,9 km/h (3 Bft) 100,00 %
05.07.2023 02:02 17,3 C 16,1 C 12,2 C 90 % 1007,0 hPa 0,2 l/m 0 min 2 min 0 W/m 6,4 km/h (2 Bft) 100,00 %
05.07.2023 02:04 17,3 C 16,1 C 12,2 C 90 % 1007,0 hPa 0,0 l/m 0 min 2 min 0 W/m 6,4 km/h (2 Bft) 97,87 %
05.07.2023 02:06 17,3 C 16,1 C 12,2 C 90 % 1006,9 hPa 0,0 l/m 0 min 2 min 0 W/m 6,4 km/h (2 Bft) 100,00 %
05.07.2023 02:08 17,3 C 16,1 C 12,2 C 91 % 1006,9 hPa 0,2 l/m 0 min 2 min 0 W/m 3,2 km/h (1 Bft) 100,00 %
05.07.2023 02:10 17,3 C 16,1 C 12,2 C 91 % 1006,9 hPa 0,2 l/m 0 min 2 min 0 W/m 6,4 km/h (2 Bft) 95,65 %
05.07.2023 02:12 17,3 C 16,1 C 12,2 C 91 % 1006,8 hPa 0,2 l/m 0 min 2 min 0 W/m 12,9 km/h (3 Bft) 100,00 %
05.07.2023 02:14 17,3 C 16,1 C 12,2 C 91 % 1006,8 hPa 0,0 l/m 0 min 2 min 0 W/m 19,3 km/h (3 Bft) 100,00 %
05.07.2023 02:16 17,2 C 15,6 C 12,2 C 91 % 1006,7 hPa 0,0 l/m 0 min 2 min 0 W/m 16,1 km/h (3 Bft) 95,74 %
05.07.2023 02:18 17,2 C 15,6 C 11,7 C 91 % 1006,6 hPa 0,0 l/m 0 min 2 min 0 W/m 6,4 km/h (2 Bft) 100,00 %
05.07.2023 02:20 17,2 C 15,6 C 12,2 C 91 % 1006,5 hPa 0,0 l/m 0 min 0 min 0 W/m 12,9 km/h (3 Bft) 100,00 %
05.07.2023 02:22 17,2 C 15,6 C 12,2 C 92 % 1006,4 hPa 0,0 l/m 0 min 0 min 0 W/m 3,2 km/h (1 Bft) 97,83 %
05.07.2023 02:24 17,2 C 15,6 C 12,2 C 92 % 1006,4 hPa 0,0 l/m 0 min 0 min 0 W/m 16,1 km/h (3 Bft) 100,00 %
05.07.2023 02:26 17,1 C 15,6 C 12,2 C 92 % 1006,4 hPa 0,0 l/m 0 min 0 min 0 W/m 12,9 km/h (3 Bft) 100,00 %
05.07.2023 02:28 17,1 C 15,6 C 12,2 C 92 % 1006,3 hPa 0,0 l/m 0 min 2 min 0 W/m 6,4 km/h (2 Bft) 97,87 %
05.07.2023 02:30 17,1 C 15,6 C 11,7 C 92 % 1006,3 hPa 0,0 l/m 0 min 0 min 0 W/m 12,9 km/h (3 Bft) 100,00 %
05.07.2023 02:32 17,1 C 15,6 C 11,7 C 92 % 1006,2 hPa 0,0 l/m 0 min 0 min 0 W/m 16,1 km/h (3 Bft) 97,87 %
05.07.2023 02:34 17,1 C 15,6 C 11,7 C 93 % 1006,2 hPa 0,0 l/m 0 min 2 min 0 W/m 19,3 km/h (3 Bft) 95,74 %
05.07.2023 02:36 17,0 C 15,6 C 11,7 C 93 % 1006,2 hPa 0,0 l/m 0 min 2 min 0 W/m 12,9 km/h (3 Bft) 93,48 %
05.07.2023 02:38 17,0 C 15,6 C 11,7 C 93 % 1006,1 hPa 0,0 l/m 0 min 2 min 0 W/m 12,9 km/h (3 Bft) 95,74 %
05.07.2023 02:40 17,0 C 15,6 C 11,7 C 93 % 1006,1 hPa 0,2 l/m 0 min 2 min 0 W/m 16,1 km/h (3 Bft) 95,74 %
05.07.2023 02:42 17,0 C 15,6 C 11,7 C 93 % 1006,0 hPa 0,0 l/m 0 min 2 min 0 W/m 6,4 km/h (2 Bft) 95,74 %
05.07.2023 02:44 16,9 C 15,6 C 11,7 C 93 % 1006,0 hPa 0,0 l/m 0 min 2 min 0 W/m 16,1 km/h (3 Bft) 95,74 %
05.07.2023 02:46 16,9 C 15,6 C 12,2 C 93 % 1006,0 hPa 0,0 l/m 0 min 0 min 0 W/m 6,4 km/h (2 Bft) 93,62 %
05.07.2023 02:48 16,9 C 15,6 C 12,2 C 93 % 1006,0 hPa 0,0 l/m 0 min 0 min 0 W/m 12,9 km/h (3 Bft) 95,74 %
05.07.2023 02:50 16,9 C 15,6 C 12,2 C 94 % 1005,9 hPa 0,0 l/m 0 min 0 min 0 W/m 16,1 km/h (3 Bft) 95,65 %
05.07.2023 02:52 16,9 C 15,6 C 12,2 C 94 % 1005,8 hPa 0,0 l/m 0 min 0 min 0 W/m 9,7 km/h (2 Bft) 89,36 %
05.07.2023 02:54 16,9 C 15,6 C 12,2 C 94 % 1005,8 hPa 0,0 l/m 0 min 0 min 0 W/m 12,9 km/h (3 Bft) 91,49 %
05.07.2023 02:56 16,9 C 15,6 C 12,2 C 94 % 1005,7 hPa 0,0 l/m 0 min 0 min 0 W/m 6,4 km/h (2 Bft) 91,49 %
05.07.2023 02:58 16,9 C 15,6 C 12,2 C 94 % 1005,8 hPa 0,0 l/m 0 min 2 min 0 W/m 6,4 km/h (2 Bft) 93,62 %
05.07.2023 03:00 16,9 C 15,6 C 12,2 C 94 % 1005,7 hPa 0,0 l/m 0 min 2 min 0 W/m 12,9 km/h (3 Bft) 93,62 %
05.07.2023 03:02 16,9 C 15,6 C 12,2 C 94 % 1005,7 hPa 0,0 l/m 0 min 0 min 0 W/m 16,1 km/h (3 Bft) 93,62 %
05.07.2023 03:04 16,9 C 16,1 C 12,2 C 94 % 1005,7 hPa 0,0 l/m 0 min 0 min 0 W/m 6,4 km/h (2 Bft) 57,45 %
05.07.2023 03:06 16,9 C 16,1 C 12,2 C 95 % 1005,6 hPa 0,0 l/m 0 min 0 min 0 W/m 9,7 km/h (2 Bft) 82,76 %
05.07.2023 03:08 16,9 C 16,1 C 12,2 C 95 % 1005,6 hPa 0,0 l/m 0 min 0 min 0 W/m 16,1 km/h (3 Bft) 100,00 %
05.07.2023 03:10 16,9 C 16,1 C 12,2 C 95 % 1005,6 hPa 0,0 l/m 0 min 0 min 0 W/m 16,1 km/h (3 Bft) 91,49 %
05.07.2023 03:12 16,9 C 16,1 C 12,2 C 95 % 1005,5 hPa 0,0 l/m 0 min 0 min 0 W/m 19,3 km/h (3 Bft) 95,74 %
05.07.2023 03:14 16,9 C 16,1 C 12,2 C 95 % 1005,5 hPa 0,0 l/m 0 min 0 min 0 W/m 12,9 km/h (3 Bft) 89,36 %
05.07.2023 03:16 16,9 C 16,1 C 12,2 C 95 % 1005,5 hPa 0,0 l/m 0 min 0 min 0 W/m 12,9 km/h (3 Bft) 93,62 %
05.07.2023 03:18 16,9 C 16,1 C 12,2 C 95 % 1005,5 hPa 0,0 l/m 0 min 2 min 0 W/m 12,9 km/h (3 Bft) 95,65 %
05.07.2023 03:20 16,9 C 16,1 C 12,2 C 95 % 1005,5 hPa 0,0 l/m 0 min 2 min 0 W/m 16,1 km/h (3 Bft) 97,87 %
05.07.2023 03:22 16,9 C 16,1 C 12,2 C 95 % 1005,4 hPa 0,0 l/m 0 min 2 min 0 W/m 12,9 km/h (3 Bft) 97,87 %
05.07.2023 03:24 16,9 C 16,1 C 12,2 C 95 % 1005,3 hPa 0,0 l/m 0 min 2 min 0 W/m 22,5 km/h (4 Bft) 97,87 %
05.07.2023 03:26 16,8 C 16,1 C 12,2 C 95 % 1005,2 hPa 0,0 l/m 0 min 2 min 0 W/m 12,9 km/h (3 Bft) 97,87 %
05.07.2023 03:28 16,9 C 16,1 C 11,7 C 95 % 1005,2 hPa 0,0 l/m 0 min 0 min 0 W/m 16,1 km/h (3 Bft) 95,74 %
05.07.2023 03:30 16,8 C 15,6 C 12,2 C 95 % 1005,1 hPa 0,0 l/m 0 min 0 min 0 W/m 12,9 km/h (3 Bft) 97,87 %
05.07.2023 03:32 16,8 C 16,1 C 12,2 C 95 % 1005,1 hPa 0,0 l/m 0 min 0 min 0 W/m 19,3 km/h (3 Bft) 97,83 %
05.07.2023 03:34 16,8 C 16,1 C 12,2 C 95 % 1005,1 hPa 0,0 l/m 0 min 0 min 0 W/m 22,5 km/h (4 Bft) 97,87 %
05.07.2023 03:36 16,8 C 16,1 C 12,2 C 95 % 1005,1 hPa 0,0 l/m 0 min 0 min 0 W/m 12,9 km/h (3 Bft) 91,49 %
05.07.2023 03:38 16,8 C 16,1 C 12,2 C 95 % 1005,1 hPa 0,0 l/m 0 min 0 min 0 W/m 16,1 km/h (3 Bft) 100,00 %
05.07.2023 03:40 16,8 C 16,1 C 12,2 C 95 % 1005,0 hPa 0,0 l/m 0 min 0 min 0 W/m 16,1 km/h (3 Bft) 100,00 %
05.07.2023 03:42 16,8 C 16,1 C 12,2 C 95 % 1005,0 hPa 0,0 l/m 0 min 0 min 0 W/m 16,1 km/h (3 Bft) 97,87 %
05.07.2023 03:44 16,8 C 16,1 C 12,2 C 95 % 1004,9 hPa 0,0 l/m 0 min 2 min 0 W/m 16,1 km/h (3 Bft) 100,00 %
05.07.2023 03:46 16,8 C 16,1 C 12,2 C 95 % 1005,0 hPa 0,0 l/m 0 min 0 min 0 W/m 16,1 km/h (3 Bft) 100,00 %
05.07.2023 03:48 16,8 C 16,1 C 12,2 C 96 % 1004,9 hPa 0,0 l/m 0 min 0 min 0 W/m 22,5 km/h (4 Bft) 100,00 %
05.07.2023 03:50 16,8 C 16,1 C 12,2 C 96 % 1004,9 hPa 0,0 l/m 0 min 0 min 0 W/m 16,1 km/h (3 Bft) 100,00 %
05.07.2023 03:52 16,8 C 16,1 C 12,2 C 96 % 1005,0 hPa 0,0 l/m 0 min 0 min 0 W/m 12,9 km/h (3 Bft) 100,00 %
05.07.2023 03:54 16,9 C 16,1 C 12,2 C 96 % 1005,0 hPa 0,0 l/m 0 min 0 min 0 W/m 16,1 km/h (3 Bft) 100,00 %
05.07.2023 03:56 16,9 C 16,1 C 12,2 C 96 % 1004,9 hPa 0,0 l/m 0 min 2 min 0 W/m 16,1 km/h (3 Bft) 100,00 %
05.07.2023 03:58 16,9 C 16,1 C 12,2 C 96 % 1004,9 hPa 0,0 l/m 0 min 2 min 0 W/m 16,1 km/h (3 Bft) 100,00 %
05.07.2023 04:00 16,9 C 16,1 C 12,2 C 96 % 1004,9 hPa 0,2 l/m 0 min 2 min 0 W/m 22,5 km/h (4 Bft) 100,00 %
05.07.2023 04:05 16,9 C 16,1 C 12,2 C 96 % 1004,8 hPa 0,0 l/m 0 min 0 min 0 W/m 12,9 km/h (3 Bft) 100,00 %
05.07.2023 04:06 16,9 C 16,1 C 12,2 C 96 % 1004,9 hPa 0,0 l/m 0 min 0 min 0 W/m 6,4 km/h (2 Bft) 100,00 %
05.07.2023 04:08 16,9 C 16,1 C 12,2 C 96 % 1004,9 hPa 0,0 l/m 0 min 2 min 0 W/m 9,7 km/h (2 Bft) 100,00 %
05.07.2023 04:10 16,9 C 16,1 C 12,2 C 96 % 1004,8 hPa 0,0 l/m 0 min 2 min 0 W/m 19,3 km/h (3 Bft) 100,00 %
05.07.2023 04:12 16,9 C 16,1 C 12,2 C 96 % 1004,8 hPa 0,0 l/m 0 min 2 min 0 W/m 16,1 km/h (3 Bft) 100,00 %
05.07.2023 04:14 16,9 C 16,1 C 12,2 C 96 % 1004,7 hPa 0,0 l/m 0 min 2 min 0 W/m 16,1 km/h (3 Bft) 97,92 %
05.07.2023 04:16 16,9 C 16,1 C 12,2 C 96 % 1004,8 hPa 0,2 l/m 0 min 2 min 0 W/m 19,3 km/h (3 Bft) 100,00 %
05.07.2023 04:18 16,9 C 16,1 C 12,2 C 96 % 1004,8 hPa 0,0 l/m 0 min 2 min 0 W/m 12,9 km/h (3 Bft) 100,00 %
05.07.2023 04:20 17,0 C 16,1 C 12,2 C 96 % 1004,8 hPa 0,0 l/m 0 min 2 min 0 W/m 19,3 km/h (3 Bft) 100,00 %
05.07.2023 04:22 17,0 C 16,1 C 12,2 C 96 % 1004,7 hPa 0,0 l/m 0 min 2 min 0 W/m 12,9 km/h (3 Bft) 100,00 %
05.07.2023 04:24 17,0 C 16,1 C 12,2 C 96 % 1004,7 hPa 0,0 l/m 0 min 2 min 0 W/m 19,3 km/h (3 Bft) 100,00 %
05.07.2023 04:26 17,0 C 16,1 C 12,2 C 96 % 1004,7 hPa 0,0 l/m 0 min 0 min 0 W/m 19,3 km/h (3 Bft) 97,87 %
05.07.2023 04:28 17,0 C 16,1 C 12,2 C 96 % 1004,7 hPa 0,0 l/m 0 min 0 min 0 W/m 29,0 km/h (5 Bft) 100,00 %
05.07.2023 04:30 17,0 C 16,1 C 12,2 C 96 % 1004,8 hPa 0,0 l/m 0 min 0 min 0 W/m 19,3 km/h (3 Bft) 97,87 %
05.07.2023 04:32 17,0 C 16,1 C 12,2 C 96 % 1004,8 hPa 0,0 l/m 0 min 0 min 0 W/m 16,1 km/h (3 Bft) 100,00 %
05.07.2023 04:34 16,9 C 16,1 C 12,2 C 96 % 1004,8 hPa 0,0 l/m 0 min 0 min 0 W/m 25,7 km/h (4 Bft) 100,00 %
05.07.2023 04:36 16,9 C 16,1 C 12,2 C 96 % 1004,8 hPa 0,0 l/m 0 min 0 min 0 W/m 12,9 km/h (3 Bft) 97,87 %
05.07.2023 04:38 16,9 C 16,1 C 12,2 C 96 % 1004,9 hPa 0,0 l/m 0 min 0 min 0 W/m 19,3 km/h (3 Bft) 93,62 %
05.07.2023 04:40 16,9 C 16,1 C 12,2 C 96 % 1004,9 hPa 0,0 l/m 0 min 0 min 0 W/m 25,7 km/h (4 Bft) 95,74 %
05.07.2023 04:42 16,9 C 16,1 C 12,2 C 96 % 1004,9 hPa 0,0 l/m 0 min 0 min 0 W/m 22,5 km/h (4 Bft) 97,83 %
05.07.2023 04:44 16,9 C 16,1 C 12,2 C 96 % 1004,9 hPa 0,0 l/m 0 min 0 min 0 W/m 29,0 km/h (5 Bft) 97,87 %
05.07.2023 04:46 16,9 C 16,1 C 12,2 C 96 % 1005,0 hPa 0,0 l/m 0 min 0 min 0 W/m 22,5 km/h (4 Bft) 95,74 %
05.07.2023 04:48 16,9 C 16,1 C 12,2 C 96 % 1005,1 hPa 0,0 l/m 0 min 0 min 0 W/m 19,3 km/h (3 Bft) 97,87 %
05.07.2023 04:50 16,9 C 16,1 C 12,2 C 96 % 1005,2 hPa 0,0 l/m 0 min 0 min 0 W/m 25,7 km/h (4 Bft) 97,87 %
05.07.2023 04:52 16,9 C 16,1 C 12,2 C 96 % 1005,1 hPa 0,0 l/m 0 min 0 min 0 W/m 29,0 km/h (5 Bft) 97,87 %
05.07.2023 04:54 16,9 C 16,1 C 12,2 C 96 % 1005,1 hPa 0,0 l/m 0 min 0 min 0 W/m 32,2 km/h (5 Bft) 97,87 %
05.07.2023 04:56 16,8 C 16,1 C 12,2 C 95 % 1005,1 hPa 0,0 l/m 0 min 0 min 0 W/m 29,0 km/h (5 Bft) 97,83 %
05.07.2023 04:58 16,8 C 16,1 C 11,7 C 95 % 1005,2 hPa 0,0 l/m 0 min 0 min 0 W/m 35,4 km/h (5 Bft) 97,87 %
05.07.2023 05:00 16,7 C 16,1 C 11,7 C 95 % 1005,2 hPa 0,0 l/m 0 min 0 min 0 W/m 25,7 km/h (4 Bft) 97,87 %
05.07.2023 05:02 16,7 C 16,1 C 11,7 C 95 % 1005,4 hPa 0,0 l/m 0 min 0 min 0 W/m 19,3 km/h (3 Bft) 95,74 %
05.07.2023 05:04 16,7 C 16,1 C 11,7 C 95 % 1005,4 hPa 0,0 l/m 0 min 0 min 0 W/m 22,5 km/h (4 Bft) 97,87 %
05.07.2023 05:06 16,6 C 16,1 C 11,7 C 94 % 1005,4 hPa 0,0 l/m 0 min 0 min 0 W/m 19,3 km/h (3 Bft) 97,87 %
05.07.2023 05:08 16,4 C 16,1 C 11,1 C 94 % 1005,6 hPa 0,0 l/m 0 min 0 min 0 W/m 19,3 km/h (3 Bft) 97,87 %
05.07.2023 05:10 16,4 C 16,1 C 11,1 C 93 % 1005,6 hPa 0,0 l/m 0 min 0 min 0 W/m 25,7 km/h (4 Bft) 100,00 %
05.07.2023 05:12 16,3 C 15,6 C 10,6 C 91 % 1005,7 hPa 0,0 l/m 0 min 0 min 0 W/m 29,0 km/h (5 Bft) 100,00 %
05.07.2023 05:14 16,2 C 15,6 C 10,6 C 90 % 1005,6 hPa 0,0 l/m 0 min 0 min 0 W/m 32,2 km/h (5 Bft) 100,00 %
05.07.2023 05:16 16,1 C 15,6 C 10,6 C 89 % 1005,7 hPa 0,0 l/m 0 min 0 min 0 W/m 22,5 km/h (4 Bft) 100,00 %
05.07.2023 05:18 16,1 C 15,6 C 10,0 C 88 % 1005,8 hPa 0,0 l/m 0 min 0 min 0 W/m 38,6 km/h (5 Bft) 100,00 %
05.07.2023 05:20 15,9 C 15,0 C 10,0 C 87 % 1005,7 hPa 0,0 l/m 0 min 0 min 0 W/m 19,3 km/h (3 Bft) 97,87 %
05.07.2023 05:22 15,9 C 15,0 C 10,0 C 86 % 1005,8 hPa 0,0 l/m 0 min 0 min 0 W/m 22,5 km/h (4 Bft) 100,00 %
05.07.2023 05:24 15,8 C 15,0 C 10,0 C 86 % 1005,8 hPa 0,0 l/m 0 min 0 min 0 W/m 41,8 km/h (6 Bft) 100,00 %
05.07.2023 05:26 15,8 C 15,0 C 10,0 C 86 % 1005,8 hPa 0,0 l/m 0 min 0 min 0 W/m 12,9 km/h (3 Bft) 100,00 %
05.07.2023 05:28 15,7 C 15,0 C 9,4 C 85 % 1005,8 hPa 0,0 l/m 0 min 0 min 0 W/m 25,7 km/h (4 Bft) 97,87 %
05.07.2023 05:30 15,6 C 14,4 C 9,4 C 84 % 1006,0 hPa 0,0 l/m 0 min 0 min 0 W/m 35,4 km/h (5 Bft) 95,74 %
05.07.2023 05:32 15,6 C 14,4 C 9,4 C 84 % 1006,0 hPa 0,0 l/m 0 min 0 min 0 W/m 29,0 km/h (5 Bft) 93,62 %
05.07.2023 05:34 15,5 C 14,4 C 9,4 C 85 % 1006,0 hPa 0,0 l/m 0 min 0 min 0 W/m 35,4 km/h (5 Bft) 95,74 %
05.07.2023 05:36 15,4 C 14,4 C 9,4 C 85 % 1006,1 hPa 0,0 l/m 0 min 0 min 0 W/m 25,7 km/h (4 Bft) 95,74 %
05.07.2023 05:38 15,4 C 14,4 C 9,4 C 85 % 1006,1 hPa 0,0 l/m 0 min 0 min 0 W/m 19,3 km/h (3 Bft) 95,74 %
05.07.2023 05:40 15,3 C 14,4 C 9,4 C 84 % 1006,2 hPa 0,0 l/m 0 min 0 min 0 W/m 41,8 km/h (6 Bft) 95,65 %
05.07.2023 05:42 15,3 C 14,4 C 9,4 C 84 % 1006,3 hPa 0,0 l/m 0 min 0 min 0 W/m 32,2 km/h (5 Bft) 95,74 %
05.07.2023 05:44 15,2 C 14,4 C 9,4 C 84 % 1006,3 hPa 0,0 l/m 0 min 0 min 0 W/m 25,7 km/h (4 Bft) 93,62 %
05.07.2023 05:46 15,1 C 14,4 C 9,4 C 84 % 1006,4 hPa 0,0 l/m 0 min 0 min 0 W/m 38,6 km/h (5 Bft) 95,74 %
05.07.2023 05:48 15,1 C 13,9 C 8,9 C 84 % 1006,3 hPa 0,0 l/m 0 min 0 min 0 W/m 19,3 km/h (3 Bft) 95,74 %
05.07.2023 05:50 15,0 C 13,9 C 8,9 C 84 % 1006,3 hPa 0,0 l/m 0 min 0 min 5 W/m 16,1 km/h (3 Bft) 95,74 %
05.07.2023 05:52 14,9 C 13,9 C 8,9 C 84 % 1006,3 hPa 0,0 l/m 0 min 0 min 5 W/m 29,0 km/h (5 Bft) 93,62 %
05.07.2023 05:54 14,9 C 13,9 C 8,9 C 84 % 1006,4 hPa 0,0 l/m 0 min 0 min 5 W/m 35,4 km/h (5 Bft) 95,74 %
05.07.2023 05:56 14,9 C 14,4 C 8,9 C 84 % 1006,6 hPa 0,0 l/m 0 min 0 min 5 W/m 22,5 km/h (4 Bft) 94,29 %
05.07.2023 05:58 14,9 C 13,9 C 8,9 C 84 % 1006,4 hPa 0,0 l/m 0 min 0 min 5 W/m 22,5 km/h (4 Bft) 94,83 %
05.07.2023 06:00 14,9 C 13,9 C 8,9 C 84 % 1006,4 hPa 0,0 l/m 0 min 0 min 7 W/m 19,3 km/h (3 Bft) 97,14 %
05.07.2023 06:02 14,8 C 13,9 C 8,9 C 84 % 1006,4 hPa 0,0 l/m 0 min 0 min 7 W/m 22,5 km/h (4 Bft) 93,62 %
05.07.2023 06:04 14,8 C 13,9 C 8,9 C 84 % 1006,5 hPa 0,0 l/m 0 min 0 min 7 W/m 12,9 km/h (3 Bft) 95,24 %
05.07.2023 06:07 14,7 C 13,9 C 8,9 C 84 % 1006,6 hPa 0,0 l/m 0 min 0 min 9 W/m 29,0 km/h (5 Bft) 95,24 %
05.07.2023 06:08 14,7 C 13,9 C 8,9 C 84 % 1006,6 hPa 0,0 l/m 0 min 0 min 8 W/m 29,0 km/h (5 Bft) 94,06 %
05.07.2023 06:10 14,7 C 13,9 C 8,9 C 84 % 1006,6 hPa 0,0 l/m 0 min 0 min 10 W/m 38,6 km/h (5 Bft) 97,87 %
05.07.2023 06:12 14,7 C 13,9 C 9,4 C 84 % 1006,6 hPa 0,0 l/m 0 min 0 min 11 W/m 16,1 km/h (3 Bft) 95,65 %
05.07.2023 06:14 14,7 C 13,9 C 9,4 C 84 % 1006,6 hPa 0,0 l/m 0 min 0 min 11 W/m 29,0 km/h (5 Bft) 97,87 %
05.07.2023 06:16 14,6 C 13,9 C 10,0 C 84 % 1006,6 hPa 0,0 l/m 0 min 0 min 12 W/m 16,1 km/h (3 Bft) 95,74 %
05.07.2023 06:18 14,6 C 13,9 C 10,0 C 85 % 1006,7 hPa 0,0 l/m 0 min 0 min 12 W/m 22,5 km/h (4 Bft) 97,87 %
05.07.2023 06:20 14,6 C 13,9 C 10,0 C 85 % 1006,6 hPa 0,0 l/m 0 min 0 min 12 W/m 29,0 km/h (5 Bft) 97,87 %
05.07.2023 06:22 14,6 C 13,9 C 10,0 C 85 % 1006,6 hPa 0,0 l/m 0 min 0 min 13 W/m 29,0 km/h (5 Bft) 93,62 %
05.07.2023 06:24 14,6 C 13,9 C 10,0 C 85 % 1006,7 hPa 0,0 l/m 0 min 0 min 14 W/m 29,0 km/h (5 Bft) 93,62 %
05.07.2023 06:26 14,6 C 13,9 C 10,6 C 85 % 1006,7 hPa 0,0 l/m 0 min 0 min 16 W/m 19,3 km/h (3 Bft) 93,48 %
05.07.2023 06:28 14,6 C 13,9 C 10,6 C 85 % 1006,8 hPa 0,0 l/m 0 min 0 min 15 W/m 19,3 km/h (3 Bft) 95,74 %
05.07.2023 06:30 14,6 C 13,9 C 10,6 C 85 % 1006,7 hPa 0,0 l/m 0 min 0 min 18 W/m 32,2 km/h (5 Bft) 95,74 %
05.07.2023 06:32 14,6 C 13,9 C 10,6 C 85 % 1006,7 hPa 0,0 l/m 0 min 0 min 29 W/m 19,3 km/h (3 Bft) 97,87 %
05.07.2023 06:34 14,6 C 13,9 C 10,6 C 85 % 1006,6 hPa 0,0 l/m 0 min 0 min 30 W/m 19,3 km/h (3 Bft) 97,87 %
05.07.2023 06:36 14,6 C 13,9 C 10,6 C 85 % 1006,6 hPa 0,0 l/m 0 min 0 min 33 W/m 16,1 km/h (3 Bft) 95,74 %
05.07.2023 06:38 14,6 C 13,9 C 10,6 C 84 % 1006,6 hPa 0,0 l/m 0 min 0 min 28 W/m 32,2 km/h (5 Bft) 97,87 %
05.07.2023 06:40 14,6 C 13,9 C 10,6 C 84 % 1006,6 hPa 0,0 l/m 0 min 0 min 22 W/m 32,2 km/h (5 Bft) 95,65 %
05.07.2023 06:42 14,6 C 13,9 C 10,6 C 84 % 1006,6 hPa 0,0 l/m 0 min 0 min 24 W/m 29,0 km/h (5 Bft) 97,87 %
05.07.2023 06:44 14,6 C 13,9 C 10,6 C 83 % 1006,7 hPa 0,0 l/m 0 min 0 min 26 W/m 38,6 km/h (5 Bft) 95,74 %
05.07.2023 06:46 14,6 C 13,9 C 10,6 C 83 % 1006,6 hPa 0,0 l/m 0 min 0 min 29 W/m 35,4 km/h (5 Bft) 97,87 %
05.07.2023 06:48 14,6 C 13,9 C 10,6 C 83 % 1006,6 hPa 0,0 l/m 0 min 0 min 31 W/m 29,0 km/h (5 Bft) 97,87 %
05.07.2023 06:50 14,6 C 13,9 C 10,6 C 83 % 1006,6 hPa 0,0 l/m 0 min 0 min 26 W/m 22,5 km/h (4 Bft) 97,87 %
05.07.2023 06:52 14,7 C 13,9 C 10,6 C 83 % 1006,6 hPa 0,0 l/m 0 min 0 min 27 W/m 19,3 km/h (3 Bft) 95,74 %
05.07.2023 06:54 14,7 C 13,9 C 11,1 C 83 % 1006,7 hPa 0,0 l/m 0 min 0 min 29 W/m 32,2 km/h (5 Bft) 97,83 %
05.07.2023 06:56 14,7 C 14,4 C 11,1 C 83 % 1006,7 hPa 0,0 l/m 0 min 0 min 32 W/m 32,2 km/h (5 Bft) 100,00 %
05.07.2023 06:58 14,7 C 14,4 C 11,1 C 83 % 1006,8 hPa 0,0 l/m 0 min 0 min 28 W/m 41,8 km/h (6 Bft) 100,00 %
05.07.2023 07:00 14,7 C 13,9 C 11,1 C 83 % 1006,7 hPa 0,0 l/m 0 min 0 min 28 W/m 29,0 km/h (5 Bft) 97,87 %
05.07.2023 07:02 14,7 C 14,4 C 11,1 C 82 % 1006,7 hPa 0,0 l/m 0 min 0 min 29 W/m 19,3 km/h (3 Bft) 100,00 %
05.07.2023 07:04 14,7 C 14,4 C 11,1 C 82 % 1006,9 hPa 0,0 l/m 0 min 0 min 32 W/m 32,2 km/h (5 Bft) 100,00 %
05.07.2023 07:06 14,8 C 14,4 C 11,1 C 81 % 1006,9 hPa 0,0 l/m 0 min 0 min 35 W/m 25,7 km/h (4 Bft) 100,00 %
05.07.2023 07:08 14,8 C 14,4 C 11,1 C 81 % 1006,9 hPa 0,0 l/m 0 min 0 min 45 W/m 38,6 km/h (5 Bft) 100,00 %
05.07.2023 07:10 14,8 C 14,4 C 11,1 C 81 % 1006,9 hPa 0,0 l/m 0 min 0 min 72 W/m 35,4 km/h (5 Bft) 100,00 %
05.07.2023 07:12 14,9 C 14,4 C 11,1 C 81 % 1006,9 hPa 0,0 l/m 0 min 0 min 105 W/m 22,5 km/h (4 Bft) 100,00 %
05.07.2023 07:14 15,0 C 14,4 C 11,1 C 80 % 1006,9 hPa 0,0 l/m 0 min 0 min 85 W/m 29,0 km/h (5 Bft) 97,87 %
05.07.2023 07:16 15,1 C 15,0 C 11,1 C 79 % 1006,7 hPa 0,0 l/m 0 min 0 min 62 W/m 41,8 km/h (6 Bft) 100,00 %
05.07.2023 07:18 15,1 C 15,0 C 11,1 C 79 % 1006,8 hPa 0,0 l/m 0 min 0 min 45 W/m 38,6 km/h (5 Bft) 100,00 %
05.07.2023 07:20 15,2 C 14,4 C 11,1 C 79 % 1006,8 hPa 0,0 l/m 0 min 0 min 44 W/m 35,4 km/h (5 Bft) 100,00 %
05.07.2023 07:22 15,2 C 14,4 C 11,1 C 78 % 1006,8 hPa 0,0 l/m 0 min 0 min 53 W/m 32,2 km/h (5 Bft) 100,00 %
05.07.2023 07:24 15,2 C 14,4 C 11,1 C 78 % 1006,8 hPa 0,0 l/m 0 min 0 min 40 W/m 29,0 km/h (5 Bft) 97,87 %
05.07.2023 07:26 15,2 C 14,4 C 11,1 C 78 % 1006,9 hPa 0,0 l/m 0 min 0 min 36 W/m 29,0 km/h (5 Bft) 100,00 %
05.07.2023 07:28 15,2 C 14,4 C 11,1 C 77 % 1006,8 hPa 0,0 l/m 0 min 0 min 52 W/m 35,4 km/h (5 Bft) 100,00 %
05.07.2023 07:30 15,2 C 14,4 C 11,1 C 77 % 1007,0 hPa 0,0 l/m 0 min 0 min 41 W/m 35,4 km/h (5 Bft) 100,00 %
05.07.2023 07:32 15,2 C 14,4 C 11,1 C 77 % 1006,9 hPa 0,0 l/m 0 min 0 min 46 W/m 35,4 km/h (5 Bft) 100,00 %
05.07.2023 07:34 15,2 C 14,4 C 11,1 C 78 % 1006,9 hPa 0,0 l/m 0 min 0 min 48 W/m 32,2 km/h (5 Bft) 100,00 %
05.07.2023 07:36 15,2 C 14,4 C 11,1 C 78 % 1006,9 hPa 0,0 l/m 0 min 0 min 45 W/m 32,2 km/h (5 Bft) 100,00 %
05.07.2023 07:38 15,1 C 14,4 C 11,1 C 78 % 1006,9 hPa 0,0 l/m 0 min 0 min 40 W/m 29,0 km/h (5 Bft) 100,00 %
05.07.2023 07:40 15,1 C 14,4 C 11,1 C 78 % 1006,9 hPa 0,0 l/m 0 min 0 min 37 W/m 25,7 km/h (4 Bft) 100,00 %
05.07.2023 07:42 15,1 C 14,4 C 11,1 C 78 % 1007,0 hPa 0,0 l/m 0 min 0 min 32 W/m 38,6 km/h (5 Bft) 97,87 %
05.07.2023 07:44 15,1 C 14,4 C 11,1 C 78 % 1007,0 hPa 0,0 l/m 0 min 0 min 42 W/m 54,7 km/h (7 Bft) 100,00 %
05.07.2023 07:46 15,1 C 14,4 C 11,1 C 78 % 1007,1 hPa 0,0 l/m 0 min 0 min 45 W/m 29,0 km/h (5 Bft) 100,00 %
05.07.2023 07:48 15,1 C 14,4 C 11,1 C 78 % 1007,0 hPa 0,0 l/m 0 min 0 min 64 W/m 19,3 km/h (3 Bft) 100,00 %
05.07.2023 07:50 15,1 C 14,4 C 11,1 C 78 % 1007,1 hPa 0,0 l/m 0 min 0 min 82 W/m 35,4 km/h (5 Bft) 100,00 %
05.07.2023 07:52 15,1 C 14,4 C 11,1 C 78 % 1007,0 hPa 0,0 l/m 0 min 0 min 74 W/m 48,3 km/h (6 Bft) 100,00 %
05.07.2023 07:54 15,1 C 14,4 C 11,1 C 78 % 1007,1 hPa 0,0 l/m 0 min 0 min 40 W/m 22,5 km/h (4 Bft) 100,00 %
05.07.2023 07:56 15,1 C 14,4 C 11,1 C 78 % 1007,1 hPa 0,0 l/m 0 min 0 min 34 W/m 29,0 km/h (5 Bft) 95,74 %
05.07.2023 07:58 15,1 C 14,4 C 11,1 C 78 % 1007,1 hPa 0,0 l/m 0 min 0 min 46 W/m 25,7 km/h (4 Bft) 100,00 %
05.07.2023 08:00 15,1 C 14,4 C 11,1 C 78 % 1007,1 hPa 0,0 l/m 0 min 0 min 41 W/m 48,3 km/h (6 Bft) 100,00 %
05.07.2023 08:02 15,0 C 14,4 C 11,1 C 78 % 1007,0 hPa 0,0 l/m 0 min 0 min 33 W/m 54,7 km/h (7 Bft) 97,87 %
05.07.2023 08:04 15,0 C 14,4 C 11,1 C 78 % 1007,2 hPa 0,0 l/m 0 min 0 min 35 W/m 35,4 km/h (5 Bft) 100,00 %
05.07.2023 08:06 15,0 C 14,4 C 11,1 C 78 % 1007,2 hPa 0,0 l/m 0 min 0 min 47 W/m 22,5 km/h (4 Bft) 95,74 %
05.07.2023 08:08 15,0 C 14,4 C 11,1 C 78 % 1007,1 hPa 0,0 l/m 0 min 0 min 65 W/m 19,3 km/h (3 Bft) 100,00 %
05.07.2023 08:10 15,0 C 14,4 C 11,1 C 78 % 1007,1 hPa 0,0 l/m 0 min 0 min 91 W/m 32,2 km/h (5 Bft) 97,87 %
05.07.2023 08:12 15,0 C 14,4 C 11,1 C 78 % 1007,3 hPa 0,0 l/m 0 min 0 min 155 W/m 48,3 km/h (6 Bft) 97,87 %
05.07.2023 08:14 15,0 C 15,0 C 11,1 C 77 % 1007,2 hPa 0,2 l/m 0 min 0 min 142 W/m 38,6 km/h (5 Bft) 93,62 %
05.07.2023 08:16 15,1 C 15,0 C 11,1 C 77 % 1007,2 hPa 0,0 l/m 0 min 0 min 89 W/m 25,7 km/h (4 Bft) 95,74 %
05.07.2023 08:18 15,1 C 14,4 C 11,1 C 77 % 1007,2 hPa 0,0 l/m 0 min 0 min 57 W/m 38,6 km/h (5 Bft) 95,74 %
05.07.2023 08:20 15,1 C 14,4 C 11,1 C 76 % 1007,3 hPa 0,0 l/m 0 min 0 min 76 W/m 45,1 km/h (6 Bft) 95,65 %
05.07.2023 08:22 15,0 C 14,4 C 11,1 C 76 % 1007,3 hPa 0,0 l/m 0 min 0 min 80 W/m 45,1 km/h (6 Bft) 93,62 %
05.07.2023 08:24 15,0 C 14,4 C 11,1 C 77 % 1007,4 hPa 0,0 l/m 0 min 0 min 97 W/m 54,7 km/h (7 Bft) 95,74 %
05.07.2023 08:26 15,0 C 14,4 C 11,1 C 77 % 1007,3 hPa 0,0 l/m 0 min 0 min 119 W/m 41,8 km/h (6 Bft) 95,74 %
05.07.2023 08:28 14,9 C 14,4 C 11,1 C 77 % 1007,3 hPa 0,0 l/m 0 min 0 min 143 W/m 29,0 km/h (5 Bft) 95,74 %
05.07.2023 08:30 14,9 C 15,0 C 11,1 C 77 % 1007,3 hPa 0,0 l/m 0 min 0 min 185 W/m 32,2 km/h (5 Bft) 95,74 %
05.07.2023 08:32 14,9 C 15,0 C 11,1 C 77 % 1007,2 hPa 0,0 l/m 0 min 0 min 148 W/m 35,4 km/h (5 Bft) 95,12 %
05.07.2023 08:34 15,0 C 15,0 C 11,1 C 77 % 1007,2 hPa 0,0 l/m 0 min 0 min 138 W/m 25,7 km/h (4 Bft) 93,62 %
05.07.2023 08:36 15,1 C 15,0 C 11,7 C 77 % 1007,3 hPa 0,0 l/m 0 min 0 min 211 W/m 25,7 km/h (4 Bft) 93,48 %
05.07.2023 08:38 15,1 C 15,0 C 11,7 C 77 % 1007,5 hPa 0,0 l/m 0 min 0 min 191 W/m 29,0 km/h (5 Bft) 93,62 %
05.07.2023 08:40 15,2 C 15,0 C 11,7 C 77 % 1007,4 hPa 0,0 l/m 0 min 0 min 155 W/m 45,1 km/h (6 Bft) 93,62 %
05.07.2023 08:42 15,2 C 15,0 C 11,7 C 76 % 1007,5 hPa 0,0 l/m 0 min 0 min 136 W/m 48,3 km/h (6 Bft) 91,49 %
05.07.2023 08:44 15,2 C 15,0 C 11,7 C 76 % 1007,5 hPa 0,0 l/m 0 min 0 min 150 W/m 51,5 km/h (7 Bft) 93,62 %
05.07.2023 08:46 15,3 C 15,0 C 11,7 C 76 % 1007,5 hPa 0,0 l/m 0 min 0 min 167 W/m 35,4 km/h (5 Bft) 88,68 %
05.07.2023 08:48 15,3 C 15,0 C 11,7 C 76 % 1007,6 hPa 0,0 l/m 0 min 0 min 146 W/m 41,8 km/h (6 Bft) 95,65 %
05.07.2023 08:50 15,3 C 15,0 C 11,7 C 76 % 1007,6 hPa 0,0 l/m 0 min 0 min 142 W/m 48,3 km/h (6 Bft) 95,74 %
05.07.2023 08:52 15,3 C 15,0 C 11,7 C 76 % 1007,6 hPa 0,0 l/m 0 min 0 min 158 W/m 48,3 km/h (6 Bft) 95,74 %
05.07.2023 08:54 15,3 C 15,0 C 11,7 C 76 % 1007,6 hPa 0,0 l/m 0 min 0 min 190 W/m 25,7 km/h (4 Bft) 95,74 %
05.07.2023 08:56 15,4 C 15,6 C 11,7 C 76 % 1007,6 hPa 0,0 l/m 0 min 0 min 203 W/m 29,0 km/h (5 Bft) 93,62 %
05.07.2023 08:58 15,4 C 15,6 C 11,7 C 76 % 1007,7 hPa 0,0 l/m 0 min 0 min 218 W/m 29,0 km/h (5 Bft) 95,74 %
05.07.2023 09:00 15,5 C 15,6 C 11,7 C 76 % 1007,7 hPa 0,0 l/m 0 min 0 min 197 W/m 38,6 km/h (5 Bft) 95,74 %
05.07.2023 09:02 15,5 C 15,6 C 11,7 C 76 % 1007,7 hPa 0,0 l/m 0 min 0 min 133 W/m 25,7 km/h (4 Bft) 95,65 %
05.07.2023 09:04 15,4 C 15,0 C 11,7 C 76 % 1007,5 hPa 0,0 l/m 0 min 0 min 78 W/m 41,8 km/h (6 Bft) 97,62 %
05.07.2023 09:06 15,4 C 15,0 C 11,7 C 76 % 1007,6 hPa 0,0 l/m 0 min 0 min 60 W/m 45,1 km/h (6 Bft) 97,87 %
05.07.2023 09:08 15,3 C 14,4 C 11,7 C 76 % 1007,6 hPa 0,0 l/m 0 min 0 min 46 W/m 41,8 km/h (6 Bft) 97,87 %
05.07.2023 09:10 15,3 C 14,4 C 11,1 C 76 % 1007,7 hPa 0,0 l/m 0 min 0 min 45 W/m 35,4 km/h (5 Bft) 97,87 %
05.07.2023 09:12 15,3 C 14,4 C 11,1 C 77 % 1007,7 hPa 0,0 l/m 0 min 0 min 45 W/m 25,7 km/h (4 Bft) 97,87 %
05.07.2023 09:14 15,2 C 14,4 C 11,1 C 76 % 1007,6 hPa 0,0 l/m 0 min 0 min 52 W/m 48,3 km/h (6 Bft) 96,23 %
05.07.2023 09:16 15,2 C 14,4 C 11,1 C 76 % 1007,8 hPa 0,0 l/m 0 min 0 min 69 W/m 22,5 km/h (4 Bft) 97,83 %
05.07.2023 09:18 15,2 C 14,4 C 11,1 C 76 % 1007,7 hPa 0,0 l/m 0 min 0 min 83 W/m 54,7 km/h (7 Bft) 97,73 %
05.07.2023 09:20 15,2 C 14,4 C 11,1 C 77 % 1007,7 hPa 0,0 l/m 0 min 0 min 78 W/m 61,2 km/h (7 Bft) 100,00 %
05.07.2023 09:22 15,2 C 14,4 C 11,1 C 77 % 1007,9 hPa 0,0 l/m 0 min 0 min 93 W/m 35,4 km/h (5 Bft) 97,87 %
05.07.2023 09:24 15,2 C 14,4 C 11,1 C 77 % 1007,9 hPa 0,0 l/m 0 min 0 min 79 W/m 29,0 km/h (5 Bft) 100,00 %
05.07.2023 09:26 15,2 C 14,4 C 11,1 C 77 % 1008,0 hPa 0,0 l/m 0 min 0 min 89 W/m 38,6 km/h (5 Bft) 97,87 %
05.07.2023 09:28 15,2 C 15,0 C 11,1 C 77 % 1008,0 hPa 0,0 l/m 0 min 0 min 119 W/m 29,0 km/h (5 Bft) 100,00 %
05.07.2023 09:30 15,2 C 15,0 C 11,7 C 77 % 1007,9 hPa 0,0 l/m 0 min 0 min 156 W/m 48,3 km/h (6 Bft) 100,00 %
05.07.2023 09:32 15,2 C 15,0 C 11,7 C 77 % 1008,0 hPa 0,0 l/m 0 min 0 min 133 W/m 25,7 km/h (4 Bft) 97,83 %
05.07.2023 09:34 15,3 C 15,0 C 11,7 C 77 % 1008,1 hPa 0,0 l/m 0 min 0 min 120 W/m 22,5 km/h (4 Bft) 97,87 %
05.07.2023 09:36 15,3 C 15,0 C 11,7 C 78 % 1008,1 hPa 0,0 l/m 0 min 0 min 133 W/m 45,1 km/h (6 Bft) 100,00 %
05.07.2023 09:38 15,3 C 15,0 C 11,7 C 78 % 1008,1 hPa 0,0 l/m 0 min 0 min 142 W/m 22,5 km/h (4 Bft) 100,00 %
05.07.2023 09:40 15,3 C 15,0 C 11,7 C 78 % 1008,1 hPa 0,0 l/m 0 min 0 min 163 W/m 45,1 km/h (6 Bft) 100,00 %
05.07.2023 09:42 15,3 C 15,0 C 11,7 C 78 % 1008,3 hPa 0,0 l/m 0 min 0 min 157 W/m 19,3 km/h (3 Bft) 100,00 %
05.07.2023 09:44 15,3 C 15,0 C 11,7 C 78 % 1008,3 hPa 0,0 l/m 0 min 0 min 120 W/m 25,7 km/h (4 Bft) 100,00 %
05.07.2023 09:46 15,3 C 15,0 C 11,7 C 78 % 1008,3 hPa 0,0 l/m 0 min 0 min 199 W/m 19,3 km/h (3 Bft) 100,00 %
05.07.2023 09:48 15,4 C 15,6 C 12,2 C 78 % 1008,3 hPa 0,0 l/m 0 min 0 min 265 W/m 35,4 km/h (5 Bft) 100,00 %
05.07.2023 09:50 15,5 C 15,6 C 12,2 C 78 % 1008,3 hPa 0,0 l/m 0 min 0 min 254 W/m 29,0 km/h (5 Bft) 100,00 %
05.07.2023 09:52 15,6 C 15,6 C 12,2 C 77 % 1008,1 hPa 0,0 l/m 0 min 0 min 258 W/m 41,8 km/h (6 Bft) 97,87 %
05.07.2023 09:54 15,6 C 15,6 C 12,2 C 77 % 1008,2 hPa 0,0 l/m 0 min 0 min 282 W/m 32,2 km/h (5 Bft) 97,87 %
05.07.2023 09:56 15,7 C 16,1 C 12,8 C 77 % 1008,3 hPa 0,0 l/m 2 min 0 min 332 W/m 25,7 km/h (4 Bft) 100,00 %
05.07.2023 09:58 15,8 C 16,1 C 12,8 C 76 % 1008,3 hPa 0,0 l/m 0 min 0 min 300 W/m 38,6 km/h (5 Bft) 97,87 %
05.07.2023 10:00 16,0 C 16,1 C 12,8 C 76 % 1008,3 hPa 0,0 l/m 0 min 0 min 256 W/m 22,5 km/h (4 Bft) 100,00 %
05.07.2023 10:02 16,1 C 16,1 C 12,8 C 76 % 1008,3 hPa 0,0 l/m 0 min 0 min 199 W/m 19,3 km/h (3 Bft) 100,00 %
05.07.2023 10:04 16,0 C 15,6 C 12,2 C 75 % 1008,3 hPa 0,0 l/m 0 min 0 min 119 W/m 22,5 km/h (4 Bft) 100,00 %
05.07.2023 10:06 15,9 C 15,6 C 12,2 C 75 % 1008,3 hPa 0,0 l/m 0 min 0 min 77 W/m 35,4 km/h (5 Bft) 97,87 %
05.07.2023 10:08 15,9 C 15,6 C 12,2 C 76 % 1008,5 hPa 0,0 l/m 0 min 0 min 80 W/m 29,0 km/h (5 Bft) 97,87 %
05.07.2023 10:10 15,8 C 15,6 C 12,2 C 75 % 1008,5 hPa 0,0 l/m 0 min 0 min 124 W/m 57,9 km/h (7 Bft) 100,00 %
05.07.2023 10:12 15,7 C 15,6 C 12,2 C 74 % 1008,4 hPa 0,0 l/m 0 min 0 min 197 W/m 22,5 km/h (4 Bft) 97,87 %
05.07.2023 10:14 15,7 C 15,6 C 12,2 C 74 % 1008,6 hPa 0,0 l/m 0 min 0 min 239 W/m 25,7 km/h (4 Bft) 97,83 %
05.07.2023 10:16 15,8 C 15,6 C 12,2 C 74 % 1008,6 hPa 0,0 l/m 0 min 0 min 273 W/m 29,0 km/h (5 Bft) 95,74 %
05.07.2023 10:18 15,9 C 16,1 C 12,8 C 74 % 1008,6 hPa 0,0 l/m 2 min 0 min 330 W/m 22,5 km/h (4 Bft) 97,87 %
05.07.2023 10:20 16,0 C 16,1 C 12,8 C 74 % 1008,6 hPa 0,0 l/m 0 min 0 min 212 W/m 22,5 km/h (4 Bft) 97,87 %
05.07.2023 10:22 16,1 C 16,1 C 12,8 C 74 % 1008,5 hPa 0,0 l/m 0 min 0 min 169 W/m 22,5 km/h (4 Bft) 97,87 %
05.07.2023 10:24 16,1 C 16,1 C 12,8 C 73 % 1008,6 hPa 0,0 l/m 0 min 0 min 192 W/m 32,2 km/h (5 Bft) 97,87 %
05.07.2023 10:26 16,1 C 16,1 C 12,8 C 73 % 1008,7 hPa 0,0 l/m 0 min 0 min 223 W/m 48,3 km/h (6 Bft) 97,87 %
05.07.2023 10:28 16,1 C 16,1 C 12,8 C 73 % 1008,6 hPa 0,0 l/m 0 min 0 min 225 W/m 25,7 km/h (4 Bft) 97,83 %
05.07.2023 10:30 16,2 C 16,7 C 12,8 C 73 % 1008,7 hPa 0,0 l/m 0 min 0 min 290 W/m 19,3 km/h (3 Bft) 97,87 %
05.07.2023 10:32 16,4 C 16,7 C 12,8 C 74 % 1008,7 hPa 0,0 l/m 0 min 0 min 273 W/m 38,6 km/h (5 Bft) 97,87 %
05.07.2023 10:34 16,5 C 16,7 C 13,3 C 73 % 1008,7 hPa 0,0 l/m 0 min 0 min 284 W/m 54,7 km/h (7 Bft) 97,87 %
05.07.2023 10:36 16,6 C 16,7 C 13,3 C 72 % 1008,7 hPa 0,0 l/m 2 min 0 min 339 W/m 45,1 km/h (6 Bft) 95,74 %
05.07.2023 10:38 16,7 C 17,2 C 13,9 C 72 % 1008,8 hPa 0,0 l/m 2 min 0 min 348 W/m 29,0 km/h (5 Bft) 97,87 %
05.07.2023 10:40 16,8 C 17,2 C 13,9 C 71 % 1008,8 hPa 0,0 l/m 0 min 0 min 284 W/m 29,0 km/h (5 Bft) 97,87 %
05.07.2023 10:42 16,7 C 16,7 C 13,3 C 72 % 1008,7 hPa 0,0 l/m 0 min 0 min 284 W/m 32,2 km/h (5 Bft) 100,00 %
05.07.2023 10:44 16,7 C 16,7 C 13,3 C 72 % 1008,9 hPa 0,0 l/m 0 min 0 min 216 W/m 41,8 km/h (6 Bft) 97,87 %
05.07.2023 10:46 16,7 C 16,7 C 12,8 C 71 % 1008,7 hPa 0,0 l/m 0 min 0 min 243 W/m 25,7 km/h (4 Bft) 97,87 %
05.07.2023 10:48 16,7 C 16,7 C 12,8 C 71 % 1008,9 hPa 0,0 l/m 0 min 0 min 206 W/m 22,5 km/h (4 Bft) 100,00 %
05.07.2023 10:50 16,7 C 16,7 C 12,8 C 71 % 1008,9 hPa 0,0 l/m 0 min 0 min 193 W/m 29,0 km/h (5 Bft) 100,00 %
05.07.2023 10:52 16,7 C 16,1 C 12,8 C 71 % 1008,9 hPa 0,0 l/m 0 min 0 min 125 W/m 57,9 km/h (7 Bft) 100,00 %
05.07.2023 10:54 16,6 C 16,1 C 12,8 C 70 % 1009,0 hPa 0,0 l/m 0 min 0 min 112 W/m 32,2 km/h (5 Bft) 100,00 %
05.07.2023 10:56 16,6 C 16,1 C 12,8 C 71 % 1009,1 hPa 0,0 l/m 0 min 0 min 159 W/m 22,5 km/h (4 Bft) 97,87 %
05.07.2023 10:58 16,6 C 16,1 C 12,8 C 71 % 1009,1 hPa 0,0 l/m 0 min 0 min 141 W/m 22,5 km/h (4 Bft) 100,00 %
05.07.2023 11:00 16,6 C 16,1 C 12,8 C 71 % 1009,0 hPa 0,0 l/m 0 min 0 min 157 W/m 29,0 km/h (5 Bft) 100,00 %
05.07.2023 11:02 16,6 C 16,1 C 12,8 C 71 % 1009,1 hPa 0,0 l/m 0 min 0 min 204 W/m 41,8 km/h (6 Bft) 100,00 %
05.07.2023 11:04 16,7 C 16,7 C 12,8 C 71 % 1009,1 hPa 0,0 l/m 0 min 0 min 273 W/m 38,6 km/h (5 Bft) 100,00 %
05.07.2023 11:06 16,7 C 16,7 C 12,8 C 70 % 1009,1 hPa 0,0 l/m 0 min 0 min 295 W/m 35,4 km/h (5 Bft) 97,87 %
05.07.2023 11:08 16,8 C 16,7 C 13,3 C 70 % 1009,1 hPa 0,0 l/m 0 min 0 min 277 W/m 32,2 km/h (5 Bft) 97,87 %
05.07.2023 11:10 16,9 C 17,2 C 13,3 C 70 % 1009,0 hPa 0,0 l/m 0 min 0 min 357 W/m 38,6 km/h (5 Bft) 97,83 %
05.07.2023 11:12 17,1 C 17,2 C 13,9 C 70 % 1009,0 hPa 0,0 l/m 2 min 0 min 534 W/m 22,5 km/h (4 Bft) 100,00 %
05.07.2023 11:14 17,3 C 18,3 C 13,9 C 70 % 1009,1 hPa 0,0 l/m 2 min 0 min 654 W/m 25,7 km/h (4 Bft) 95,74 %
05.07.2023 11:16 17,4 C 17,8 C 13,9 C 69 % 1009,2 hPa 0,0 l/m 2 min 0 min 510 W/m 45,1 km/h (6 Bft) 95,74 %
05.07.2023 11:18 17,4 C 17,8 C 13,9 C 69 % 1009,2 hPa 0,0 l/m 0 min 0 min 337 W/m 29,0 km/h (5 Bft) 97,87 %
05.07.2023 11:20 17,4 C 17,2 C 13,9 C 69 % 1009,2 hPa 0,0 l/m 0 min 0 min 297 W/m 22,5 km/h (4 Bft) 95,74 %
05.07.2023 11:22 17,4 C 17,8 C 13,9 C 69 % 1009,2 hPa 0,0 l/m 0 min 0 min 241 W/m 35,4 km/h (5 Bft) 97,87 %
05.07.2023 11:24 17,4 C 17,2 C 13,9 C 68 % 1009,2 hPa 0,0 l/m 0 min 0 min 244 W/m 35,4 km/h (5 Bft) 97,87 %
05.07.2023 11:26 17,4 C 17,2 C 13,9 C 69 % 1009,3 hPa 0,0 l/m 0 min 0 min 266 W/m 32,2 km/h (5 Bft) 97,83 %
05.07.2023 11:28 17,4 C 17,2 C 13,9 C 69 % 1009,3 hPa 0,0 l/m 0 min 0 min 291 W/m 29,0 km/h (5 Bft) 91,49 %
05.07.2023 11:30 17,3 C 17,2 C 13,9 C 68 % 1009,3 hPa 0,0 l/m 0 min 0 min 282 W/m 35,4 km/h (5 Bft) 95,74 %
05.07.2023 11:32 17,4 C 17,8 C 13,9 C 69 % 1009,3 hPa 0,0 l/m 0 min 0 min 360 W/m 16,1 km/h (3 Bft) 93,62 %
05.07.2023 11:34 17,5 C 17,8 C 13,9 C 68 % 1009,4 hPa 0,0 l/m 0 min 0 min 380 W/m 54,7 km/h (7 Bft) 97,87 %
05.07.2023 11:36 17,6 C 17,8 C 13,9 C 68 % 1009,4 hPa 0,0 l/m 0 min 0 min 335 W/m 25,7 km/h (4 Bft) 97,87 %
05.07.2023 11:38 17,6 C 17,8 C 13,9 C 68 % 1009,4 hPa 0,0 l/m 0 min 0 min 263 W/m 22,5 km/h (4 Bft) 95,74 %
05.07.2023 11:40 17,6 C 17,8 C 13,9 C 68 % 1009,5 hPa 0,0 l/m 0 min 0 min 232 W/m 48,3 km/h (6 Bft) 97,83 %
05.07.2023 11:42 17,6 C 17,8 C 13,9 C 68 % 1009,5 hPa 0,0 l/m 0 min 0 min 257 W/m 25,7 km/h (4 Bft) 97,87 %
05.07.2023 11:44 17,6 C 17,2 C 13,9 C 67 % 1009,4 hPa 0,0 l/m 0 min 0 min 212 W/m 29,0 km/h (5 Bft) 95,74 %
05.07.2023 11:46 17,6 C 17,2 C 13,9 C 68 % 1009,5 hPa 0,0 l/m 0 min 0 min 201 W/m 22,5 km/h (4 Bft) 95,74 %
05.07.2023 11:48 17,6 C 17,2 C 13,9 C 68 % 1009,5 hPa 0,0 l/m 0 min 0 min 195 W/m 32,2 km/h (5 Bft) 93,62 %
05.07.2023 11:50 17,6 C 17,2 C 13,9 C 67 % 1009,5 hPa 0,0 l/m 0 min 0 min 180 W/m 38,6 km/h (5 Bft) 95,74 %
05.07.2023 11:52 17,5 C 17,2 C 13,9 C 67 % 1009,6 hPa 0,0 l/m 0 min 0 min 210 W/m 41,8 km/h (6 Bft) 93,62 %
05.07.2023 11:54 17,6 C 18,3 C 14,4 C 67 % 1009,7 hPa 0,0 l/m 0 min 0 min 264 W/m 29,0 km/h (5 Bft) 93,48 %
05.07.2023 11:56 17,8 C 17,8 C 14,4 C 66 % 1009,7 hPa 0,0 l/m 0 min 0 min 264 W/m 38,6 km/h (5 Bft) 93,62 %
05.07.2023 11:58 17,8 C 18,3 C 14,4 C 66 % 1009,6 hPa 0,0 l/m 0 min 0 min 274 W/m 35,4 km/h (5 Bft) 95,74 %
05.07.2023 12:00 17,9 C 17,8 C 14,4 C 66 % 1009,7 hPa 0,0 l/m 0 min 0 min 201 W/m 29,0 km/h (5 Bft) 97,14 %
05.07.2023 12:02 17,8 C 17,2 C 13,9 C 66 % 1009,7 hPa 0,0 l/m 0 min 0 min 109 W/m 41,8 km/h (6 Bft) 96,00 %
05.07.2023 12:04 17,8 C 17,2 C 13,9 C 65 % 1009,7 hPa 0,0 l/m 0 min 0 min 138 W/m 48,3 km/h (6 Bft) 93,88 %
05.07.2023 12:07 17,7 C 17,8 C 14,4 C 66 % 1009,8 hPa 0,0 l/m 0 min 0 min 220 W/m 35,4 km/h (5 Bft) 93,88 %
05.07.2023 12:08 17,8 C 19,4 C 15,0 C 67 % 1009,9 hPa 0,0 l/m 0 min 0 min 217 W/m 35,4 km/h (5 Bft) 96,81 %
05.07.2023 12:10 18,1 C 20,0 C 15,0 C 66 % 1009,9 hPa 0,0 l/m 0 min 0 min 220 W/m 25,7 km/h (4 Bft) 93,48 %
05.07.2023 12:12 18,4 C 20,6 C 16,1 C 65 % 1010,0 hPa 0,0 l/m 0 min 0 min 356 W/m 67,6 km/h (8 Bft) 97,87 %
05.07.2023 12:14 18,7 C 20,6 C 16,7 C 64 % 1009,9 hPa 0,0 l/m 2 min 0 min 908 W/m 35,4 km/h (5 Bft) 95,74 %
05.07.2023 12:16 18,7 C 20,6 C 17,2 C 63 % 1009,9 hPa 0,0 l/m 2 min 0 min 896 W/m 29,0 km/h (5 Bft) 95,74 %
05.07.2023 12:18 18,9 C 21,1 C 18,3 C 64 % 1010,0 hPa 0,0 l/m 2 min 0 min 930 W/m 16,1 km/h (3 Bft) 93,62 %
05.07.2023 12:20 19,1 C 21,1 C 18,3 C 63 % 1009,9 hPa 0,0 l/m 2 min 0 min 1076 W/m 38,6 km/h (5 Bft) 95,74 %
05.07.2023 12:22 19,3 C 21,1 C 18,3 C 63 % 1010,0 hPa 0,0 l/m 2 min 0 min 742 W/m 22,5 km/h (4 Bft) 95,74 %
05.07.2023 12:24 19,4 C 22,2 C 20,0 C 63 % 1010,0 hPa 0,0 l/m 2 min 0 min 769 W/m 19,3 km/h (3 Bft) 95,65 %
05.07.2023 12:26 19,7 C 22,8 C 20,6 C 62 % 1010,0 hPa 0,0 l/m 2 min 0 min 953 W/m 38,6 km/h (5 Bft) 95,74 %
05.07.2023 12:28 19,8 C 21,1 C 19,4 C 63 % 1010,2 hPa 0,0 l/m 2 min 0 min 905 W/m 25,7 km/h (4 Bft) 95,74 %
05.07.2023 12:30 19,6 C 21,1 C 19,4 C 62 % 1010,1 hPa 0,0 l/m 0 min 0 min 185 W/m 32,2 km/h (5 Bft) 95,74 %
05.07.2023 12:32 19,4 C 20,6 C 18,3 C 62 % 1010,2 hPa 0,0 l/m 0 min 0 min 207 W/m 29,0 km/h (5 Bft) 97,87 %
05.07.2023 12:34 19,4 C 20,6 C 18,3 C 63 % 1010,2 hPa 0,0 l/m 0 min 0 min 322 W/m 25,7 km/h (4 Bft) 97,87 %
05.07.2023 12:36 19,4 C 21,1 C 18,9 C 63 % 1010,3 hPa 0,0 l/m 0 min 0 min 384 W/m 38,6 km/h (5 Bft) 97,87 %
05.07.2023 12:38 19,5 C 20,6 C 18,9 C 62 % 1010,3 hPa 0,0 l/m 0 min 0 min 406 W/m 29,0 km/h (5 Bft) 97,83 %
05.07.2023 12:40 19,6 C 21,7 C 19,4 C 63 % 1010,4 hPa 0,0 l/m 0 min 0 min 348 W/m 25,7 km/h (4 Bft) 97,87 %
05.07.2023 12:42 19,8 C 21,7 C 20,0 C 61 % 1010,3 hPa 0,0 l/m 0 min 0 min 345 W/m 22,5 km/h (4 Bft) 97,87 %
05.07.2023 12:44 19,9 C 22,2 C 20,0 C 61 % 1010,3 hPa 0,0 l/m 2 min 0 min 608 W/m 22,5 km/h (4 Bft) 95,74 %
05.07.2023 12:46 19,9 C 21,1 C 19,4 C 61 % 1010,4 hPa 0,0 l/m 2 min 0 min 1034 W/m 29,0 km/h (5 Bft) 95,74 %
05.07.2023 12:48 19,8 C 20,6 C 18,3 C 60 % 1010,4 hPa 0,0 l/m 0 min 0 min 361 W/m 38,6 km/h (5 Bft) 97,87 %
05.07.2023 12:50 19,6 C 20,0 C 17,2 C 60 % 1010,4 hPa 0,0 l/m 0 min 0 min 394 W/m 29,0 km/h (5 Bft) 100,00 %
05.07.2023 12:52 19,4 C 19,4 C 16,7 C 61 % 1010,5 hPa 0,0 l/m 0 min 0 min 236 W/m 25,7 km/h (4 Bft) 100,00 %
05.07.2023 12:54 19,3 C 18,9 C 16,1 C 61 % 1010,5 hPa 0,0 l/m 0 min 0 min 257 W/m 29,0 km/h (5 Bft) 100,00 %
05.07.2023 12:56 19,2 C 19,4 C 16,1 C 62 % 1010,5 hPa 0,0 l/m 0 min 0 min 278 W/m 38,6 km/h (5 Bft) 100,00 %
05.07.2023 12:58 19,4 C 21,7 C 17,2 C 61 % 1010,6 hPa 0,0 l/m 0 min 0 min 278 W/m 41,8 km/h (6 Bft) 97,87 %
05.07.2023 13:00 19,6 C 21,7 C 17,8 C 60 % 1010,6 hPa 0,0 l/m 2 min 0 min 500 W/m 25,7 km/h (4 Bft) 100,00 %
05.07.2023 13:02 19,8 C 22,2 C 18,3 C 59 % 1010,6 hPa 0,0 l/m 2 min 0 min 1114 W/m 38,6 km/h (5 Bft) 100,00 %
05.07.2023 13:04 20,0 C 22,8 C 18,3 C 59 % 1010,6 hPa 0,0 l/m 2 min 0 min 1061 W/m 22,5 km/h (4 Bft) 100,00 %
05.07.2023 13:06 20,1 C 21,1 C 17,8 C 58 % 1010,6 hPa 0,0 l/m 2 min 0 min 1060 W/m 38,6 km/h (5 Bft) 97,83 %
05.07.2023 13:08 20,0 C 20,6 C 17,2 C 59 % 1010,7 hPa 0,0 l/m 0 min 0 min 227 W/m 32,2 km/h (5 Bft) 100,00 %
05.07.2023 13:10 19,9 C 20,0 C 16,7 C 59 % 1010,7 hPa 0,0 l/m 0 min 0 min 197 W/m 22,5 km/h (4 Bft) 100,00 %
05.07.2023 13:12 19,6 C 19,4 C 16,7 C 60 % 1010,7 hPa 0,0 l/m 0 min 0 min 274 W/m 38,6 km/h (5 Bft) 100,00 %
05.07.2023 13:14 19,5 C 20,0 C 16,7 C 60 % 1010,7 hPa 0,0 l/m 0 min 0 min 306 W/m 19,3 km/h (3 Bft) 100,00 %
05.07.2023 13:16 19,6 C 20,6 C 16,7 C 60 % 1010,8 hPa 0,0 l/m 2 min 0 min 738 W/m 38,6 km/h (5 Bft) 97,87 %
05.07.2023 13:18 19,7 C 22,2 C 16,7 C 60 % 1010,8 hPa 0,0 l/m 2 min 0 min 1069 W/m 22,5 km/h (4 Bft) 100,00 %
05.07.2023 13:20 19,9 C 22,2 C 17,2 C 58 % 1010,8 hPa 0,0 l/m 2 min 0 min 1153 W/m 29,0 km/h (5 Bft) 100,00 %
05.07.2023 13:22 20,1 C 21,1 C 16,7 C 58 % 1010,8 hPa 0,0 l/m 2 min 0 min 1012 W/m 25,7 km/h (4 Bft) 100,00 %
05.07.2023 13:24 19,9 C 21,1 C 16,7 C 57 % 1010,9 hPa 0,0 l/m 0 min 0 min 296 W/m 29,0 km/h (5 Bft) 100,00 %
05.07.2023 13:26 20,0 C 22,8 C 16,7 C 57 % 1010,9 hPa 0,0 l/m 2 min 0 min 643 W/m 22,5 km/h (4 Bft) 100,00 %
05.07.2023 13:28 20,2 C 23,3 C 17,2 C 58 % 1010,9 hPa 0,0 l/m 2 min 0 min 1042 W/m 35,4 km/h (5 Bft) 100,00 %
05.07.2023 13:30 20,4 C 23,9 C 17,8 C 57 % 1010,8 hPa 0,0 l/m 2 min 0 min 1042 W/m 35,4 km/h (5 Bft) 100,00 %
05.07.2023 13:32 20,6 C 23,9 C 17,8 C 57 % 1010,9 hPa 0,0 l/m 2 min 0 min 989 W/m 19,3 km/h (3 Bft) 100,00 %
05.07.2023 13:34 20,7 C 23,9 C 17,8 C 57 % 1010,9 hPa 0,0 l/m 2 min 0 min 949 W/m 35,4 km/h (5 Bft) 100,00 %
05.07.2023 13:36 20,8 C 23,3 C 17,8 C 56 % 1010,9 hPa 0,0 l/m 2 min 0 min 547 W/m 35,4 km/h (5 Bft) 100,00 %
05.07.2023 13:38 20,8 C 22,8 C 18,3 C 56 % 1010,8 hPa 0,0 l/m 2 min 0 min 422 W/m 22,5 km/h (4 Bft) 100,00 %
05.07.2023 13:40 20,8 C 23,9 C 18,9 C 56 % 1010,8 hPa 0,0 l/m 2 min 0 min 550 W/m 22,5 km/h (4 Bft) 100,00 %
05.07.2023 13:42 20,8 C 23,9 C 19,4 C 56 % 1010,9 hPa 0,0 l/m 2 min 0 min 1105 W/m 29,0 km/h (5 Bft) 100,00 %
05.07.2023 13:44 21,1 C 25,0 C 20,6 C 56 % 1010,9 hPa 0,0 l/m 2 min 0 min 1114 W/m 22,5 km/h (4 Bft) 97,14 %
05.07.2023 13:46 21,2 C 23,3 C 20,0 C 56 % 1011,0 hPa 0,0 l/m 2 min 0 min 969 W/m 29,0 km/h (5 Bft) 97,87 %
05.07.2023 13:48 21,1 C 22,8 C 19,4 C 56 % 1011,0 hPa 0,0 l/m 0 min 0 min 293 W/m 32,2 km/h (5 Bft) 97,87 %
05.07.2023 13:50 21,0 C 22,8 C 20,0 C 57 % 1011,1 hPa 0,0 l/m 0 min 0 min 286 W/m 25,7 km/h (4 Bft) 95,74 %
05.07.2023 13:52 20,8 C 21,7 C 18,9 C 55 % 1011,0 hPa 0,0 l/m 0 min 0 min 208 W/m 22,5 km/h (4 Bft) 97,87 %
05.07.2023 13:54 20,5 C 20,6 C 17,8 C 55 % 1011,1 hPa 0,0 l/m 0 min 0 min 238 W/m 22,5 km/h (4 Bft) 95,65 %
05.07.2023 13:56 20,2 C 21,1 C 17,8 C 56 % 1011,1 hPa 0,0 l/m 0 min 0 min 240 W/m 29,0 km/h (5 Bft) 95,74 %
05.07.2023 13:58 20,2 C 21,7 C 17,8 C 56 % 1011,1 hPa 0,0 l/m 2 min 0 min 803 W/m 45,1 km/h (6 Bft) 97,87 %
05.07.2023 14:00 20,2 C 21,1 C 17,8 C 56 % 1011,0 hPa 0,0 l/m 2 min 0 min 1107 W/m 22,5 km/h (4 Bft) 95,74 %
05.07.2023 14:02 20,3 C 21,1 C 17,8 C 57 % 1011,0 hPa 0,0 l/m 2 min 0 min 1034 W/m 25,7 km/h (4 Bft) 97,87 %
05.07.2023 14:04 20,3 C 20,6 C 17,8 C 56 % 1011,0 hPa 0,0 l/m 0 min 0 min 242 W/m 16,1 km/h (3 Bft) 98,04 %
05.07.2023 14:06 20,3 C 20,0 C 17,2 C 56 % 1011,1 hPa 0,0 l/m 0 min 0 min 208 W/m 19,3 km/h (3 Bft) 98,31 %
05.07.2023 14:08 20,2 C 20,0 C 16,7 C 57 % 1011,0 hPa 0,0 l/m 0 min 0 min 198 W/m 19,3 km/h (3 Bft) 97,06 %
05.07.2023 14:10 20,1 C 19,4 C 16,7 C 56 % 1011,1 hPa 0,0 l/m 0 min 0 min 219 W/m 25,7 km/h (4 Bft) 97,87 %
05.07.2023 14:12 19,9 C 19,4 C 16,1 C 56 % 1011,2 hPa 0,0 l/m 0 min 0 min 197 W/m 22,5 km/h (4 Bft) 93,62 %
05.07.2023 14:14 19,8 C 19,4 C 16,1 C 56 % 1011,3 hPa 0,0 l/m 0 min 0 min 165 W/m 25,7 km/h (4 Bft) 93,62 %
05.07.2023 14:16 19,8 C 19,4 C 16,1 C 58 % 1011,3 hPa 0,0 l/m 0 min 0 min 148 W/m 54,7 km/h (7 Bft) 95,74 %
05.07.2023 14:18 19,6 C 20,6 C 16,1 C 61 % 1011,3 hPa 0,0 l/m 0 min 0 min 205 W/m 22,5 km/h (4 Bft) 95,74 %
05.07.2023 14:20 19,8 C 22,8 C 16,1 C 61 % 1011,3 hPa 0,0 l/m 2 min 0 min 937 W/m 22,5 km/h (4 Bft) 95,74 %
05.07.2023 14:22 20,1 C 23,9 C 16,7 C 61 % 1011,3 hPa 0,0 l/m 2 min 0 min 948 W/m 32,2 km/h (5 Bft) 95,65 %
05.07.2023 14:24 20,4 C 24,4 C 16,7 C 59 % 1011,3 hPa 0,0 l/m 2 min 0 min 930 W/m 32,2 km/h (5 Bft) 95,74 %
05.07.2023 14:26 20,4 C 24,4 C 17,2 C 59 % 1011,3 hPa 0,0 l/m 2 min 0 min 926 W/m 41,8 km/h (6 Bft) 95,74 %
05.07.2023 14:28 20,7 C 25,0 C 17,2 C 59 % 1011,3 hPa 0,0 l/m 2 min 0 min 935 W/m 19,3 km/h (3 Bft) 95,74 %
05.07.2023 14:30 21,1 C 26,1 C 17,2 C 59 % 1011,2 hPa 0,0 l/m 2 min 0 min 956 W/m 22,5 km/h (4 Bft) 95,74 %
05.07.2023 14:32 21,4 C 25,6 C 17,8 C 58 % 1011,2 hPa 0,0 l/m 2 min 0 min 995 W/m 16,1 km/h (3 Bft) 97,87 %
05.07.2023 14:34 21,5 C 23,9 C 17,8 C 57 % 1011,2 hPa 0,0 l/m 2 min 0 min 995 W/m 32,2 km/h (5 Bft) 97,87 %
05.07.2023 14:36 21,4 C 24,4 C 17,8 C 58 % 1011,3 hPa 0,0 l/m 2 min 0 min 995 W/m 19,3 km/h (3 Bft) 97,87 %
05.07.2023 14:38 21,3 C 25,0 C 17,8 C 57 % 1011,3 hPa 0,0 l/m 2 min 0 min 1059 W/m 57,9 km/h (7 Bft) 97,83 %
05.07.2023 14:40 21,4 C 23,9 C 17,8 C 57 % 1011,3 hPa 0,0 l/m 2 min 0 min 1038 W/m 19,3 km/h (3 Bft) 95,74 %
05.07.2023 14:42 21,3 C 22,8 C 17,8 C 57 % 1011,2 hPa 0,0 l/m 2 min 0 min 739 W/m 35,4 km/h (5 Bft) 97,87 %
05.07.2023 14:44 21,1 C 21,7 C 17,8 C 57 % 1011,3 hPa 0,0 l/m 0 min 0 min 329 W/m 29,0 km/h (5 Bft) 97,87 %
05.07.2023 14:46 20,9 C 21,1 C 17,2 C 57 % 1011,4 hPa 0,0 l/m 0 min 0 min 347 W/m 35,4 km/h (5 Bft) 95,74 %
05.07.2023 14:48 20,7 C 20,0 C 16,7 C 57 % 1011,5 hPa 0,0 l/m 0 min 0 min 256 W/m 29,0 km/h (5 Bft) 97,87 %
05.07.2023 14:50 20,4 C 20,0 C 16,7 C 58 % 1011,7 hPa 0,0 l/m 0 min 0 min 175 W/m 32,2 km/h (5 Bft) 97,87 %
05.07.2023 14:52 20,2 C 20,0 C 16,7 C 60 % 1011,6 hPa 0,0 l/m 0 min 0 min 165 W/m 22,5 km/h (4 Bft) 100,00 %
05.07.2023 14:54 20,2 C 20,0 C 16,7 C 61 % 1011,6 hPa 0,0 l/m 0 min 0 min 222 W/m 22,5 km/h (4 Bft) 93,62 %
05.07.2023 14:56 20,2 C 21,1 C 16,7 C 62 % 1011,7 hPa 0,0 l/m 0 min 0 min 246 W/m 19,3 km/h (3 Bft) 100,00 %
05.07.2023 14:58 20,3 C 21,7 C 16,7 C 63 % 1011,8 hPa 0,0 l/m 0 min 0 min 329 W/m 45,1 km/h (6 Bft) 100,00 %
05.07.2023 15:00 20,3 C 22,8 C 16,7 C 64 % 1011,7 hPa 0,0 l/m 2 min 0 min 515 W/m 32,2 km/h (5 Bft) 100,00 %
05.07.2023 15:02 20,3 C 22,2 C 16,7 C 63 % 1011,8 hPa 0,0 l/m 2 min 0 min 994 W/m 38,6 km/h (5 Bft) 97,87 %
05.07.2023 15:05 20,1 C 21,1 C 16,7 C 64 % 1011,8 hPa 0,0 l/m 3 min 0 min 537 W/m 38,6 km/h (5 Bft) 100,00 %
05.07.2023 15:08 19,9 C 20,0 C 16,7 C 64 % 1011,9 hPa 0,0 l/m 0 min 0 min 294 W/m 25,7 km/h (4 Bft) 87,50 %
05.07.2023 15:13 19,6 C 19,4 C 16,7 C 66 % 1011,9 hPa 0,0 l/m 0 min 0 min 215 W/m 25,7 km/h (4 Bft) 100,00 %
05.07.2023 15:14 19,6 C 19,4 C 16,7 C 66 % 1011,9 hPa 0,0 l/m 0 min 0 min 134 W/m 25,7 km/h (4 Bft) 100,00 %
05.07.2023 15:16 19,6 C 18,9 C 16,7 C 66 % 1011,8 hPa 0,0 l/m 0 min 0 min 124 W/m 19,3 km/h (3 Bft) 100,00 %
05.07.2023 15:18 19,6 C 18,9 C 15,6 C 67 % 1011,9 hPa 0,0 l/m 0 min 0 min 113 W/m 16,1 km/h (3 Bft) 100,00 %
05.07.2023 15:20 19,5 C 18,9 C 15,6 C 67 % 1011,9 hPa 0,0 l/m 0 min 0 min 110 W/m 35,4 km/h (5 Bft) 93,62 %
05.07.2023 15:22 19,4 C 18,9 C 15,6 C 67 % 1012,0 hPa 0,0 l/m 0 min 0 min 145 W/m 45,1 km/h (6 Bft) 97,87 %
05.07.2023 15:24 19,3 C 18,9 C 15,6 C 67 % 1012,0 hPa 0,0 l/m 0 min 0 min 140 W/m 45,1 km/h (6 Bft) 97,87 %
05.07.2023 15:26 19,3 C 18,9 C 15,6 C 67 % 1011,9 hPa 0,0 l/m 0 min 2 min 150 W/m 19,3 km/h (3 Bft) 97,87 %
05.07.2023 15:28 19,3 C 18,9 C 15,6 C 69 % 1012,0 hPa 0,0 l/m 0 min 0 min 161 W/m 35,4 km/h (5 Bft) 97,87 %
05.07.2023 15:30 19,0 C 16,1 C 12,8 C 73 % 1012,5 hPa 0,0 l/m 0 min 2 min 192 W/m 38,6 km/h (5 Bft) 97,87 %
05.07.2023 15:32 18,2 C 15,6 C 12,2 C 77 % 1012,1 hPa 0,0 l/m 0 min 2 min 300 W/m 38,6 km/h (5 Bft) 97,83 %
05.07.2023 15:34 17,7 C 17,2 C 12,2 C 81 % 1012,2 hPa 0,0 l/m 0 min 2 min 376 W/m 22,5 km/h (4 Bft) 97,87 %
05.07.2023 15:36 17,8 C 18,9 C 12,8 C 84 % 1012,2 hPa 0,0 l/m 2 min 0 min 665 W/m 16,1 km/h (3 Bft) 97,87 %
05.07.2023 15:38 18,1 C 20,6 C 12,8 C 85 % 1012,2 hPa 0,0 l/m 2 min 0 min 889 W/m 16,1 km/h (3 Bft) 97,87 %
05.07.2023 15:40 18,4 C 21,1 C 13,3 C 84 % 1012,2 hPa 0,0 l/m 2 min 0 min 932 W/m 19,3 km/h (3 Bft) 97,87 %
05.07.2023 15:42 18,6 C 20,0 C 13,3 C 80 % 1012,3 hPa 0,0 l/m 2 min 0 min 963 W/m 25,7 km/h (4 Bft) 97,87 %
05.07.2023 15:44 18,6 C 20,0 C 13,9 C 79 % 1012,2 hPa 0,0 l/m 2 min 0 min 963 W/m 22,5 km/h (4 Bft) 97,83 %
05.07.2023 15:46 18,7 C 21,7 C 14,4 C 78 % 1012,1 hPa 0,0 l/m 2 min 0 min 972 W/m 16,1 km/h (3 Bft) 95,74 %
05.07.2023 15:48 19,2 C 22,2 C 15,0 C 77 % 1012,1 hPa 0,0 l/m 2 min 0 min 984 W/m 22,5 km/h (4 Bft) 97,87 %
05.07.2023 15:50 19,6 C 22,8 C 15,6 C 75 % 1012,2 hPa 0,0 l/m 2 min 0 min 984 W/m 19,3 km/h (3 Bft) 95,74 %
05.07.2023 15:52 19,8 C 22,8 C 15,6 C 71 % 1012,1 hPa 0,0 l/m 2 min 0 min 984 W/m 29,0 km/h (5 Bft) 97,87 %
05.07.2023 15:54 19,9 C 22,8 C 16,1 C 71 % 1012,2 hPa 0,0 l/m 2 min 0 min 984 W/m 25,7 km/h (4 Bft) 97,87 %
05.07.2023 15:56 20,1 C 21,7 C 16,1 C 70 % 1012,2 hPa 0,0 l/m 2 min 0 min 782 W/m 16,1 km/h (3 Bft) 97,87 %
05.07.2023 15:58 20,1 C 22,2 C 16,1 C 69 % 1012,2 hPa 0,0 l/m 0 min 0 min 320 W/m 48,3 km/h (6 Bft) 95,65 %
05.07.2023 16:00 20,1 C 22,8 C 16,7 C 69 % 1012,2 hPa 0,0 l/m 0 min 0 min 332 W/m 25,7 km/h (4 Bft) 97,87 %
05.07.2023 16:02 20,3 C 22,2 C 16,7 C 68 % 1012,1 hPa 0,0 l/m 2 min 0 min 842 W/m 57,9 km/h (7 Bft) 97,87 %
05.07.2023 16:04 20,2 C 21,1 C 16,7 C 68 % 1012,2 hPa 0,0 l/m 2 min 0 min 447 W/m 48,3 km/h (6 Bft) 97,96 %
05.07.2023 16:06 20,2 C 21,7 C 16,7 C 68 % 1012,2 hPa 0,0 l/m 0 min 0 min 334 W/m 38,6 km/h (5 Bft) 93,62 %
05.07.2023 16:08 20,2 C 21,1 C 16,7 C 68 % 1012,2 hPa 0,0 l/m 0 min 0 min 361 W/m 25,7 km/h (4 Bft) 97,14 %
05.07.2023 16:10 20,2 C 22,8 C 16,7 C 69 % 1012,3 hPa 0,0 l/m 2 min 0 min 625 W/m 29,0 km/h (5 Bft) 97,87 %
05.07.2023 16:12 20,5 C 23,3 C 16,7 C 67 % 1012,2 hPa 0,0 l/m 2 min 0 min 936 W/m 25,7 km/h (4 Bft) 100,00 %
05.07.2023 16:14 20,8 C 23,3 C 16,7 C 68 % 1012,3 hPa 0,0 l/m 2 min 0 min 866 W/m 19,3 km/h (3 Bft) 100,00 %
05.07.2023 16:16 20,7 C 21,7 C 16,7 C 66 % 1012,2 hPa 0,0 l/m 2 min 0 min 374 W/m 22,5 km/h (4 Bft) 97,83 %
05.07.2023 16:18 20,6 C 21,1 C 16,7 C 67 % 1012,3 hPa 0,0 l/m 0 min 0 min 276 W/m 22,5 km/h (4 Bft) 95,74 %
05.07.2023 16:20 20,4 C 20,6 C 16,7 C 66 % 1012,3 hPa 0,0 l/m 0 min 0 min 292 W/m 25,7 km/h (4 Bft) 91,49 %
05.07.2023 16:22 20,2 C 20,0 C 16,7 C 66 % 1012,3 hPa 0,0 l/m 0 min 0 min 305 W/m 25,7 km/h (4 Bft) 95,74 %
05.07.2023 16:24 20,1 C 20,0 C 16,7 C 67 % 1012,4 hPa 0,0 l/m 0 min 0 min 244 W/m 22,5 km/h (4 Bft) 95,74 %
05.07.2023 16:26 20,1 C 21,7 C 16,7 C 68 % 1012,4 hPa 0,0 l/m 2 min 0 min 479 W/m 19,3 km/h (3 Bft) 95,74 %
05.07.2023 16:28 20,2 C 21,7 C 16,7 C 67 % 1012,3 hPa 0,0 l/m 2 min 0 min 650 W/m 19,3 km/h (3 Bft) 95,74 %
05.07.2023 16:30 20,3 C 21,1 C 16,7 C 68 % 1012,3 hPa 0,0 l/m 0 min 0 min 264 W/m 19,3 km/h (3 Bft) 95,65 %
05.07.2023 16:32 20,3 C 20,6 C 16,7 C 67 % 1012,4 hPa 0,0 l/m 0 min 0 min 254 W/m 25,7 km/h (4 Bft) 93,62 %
05.07.2023 16:34 20,2 C 20,6 C 16,7 C 68 % 1012,2 hPa 0,0 l/m 0 min 0 min 337 W/m 22,5 km/h (4 Bft) 95,74 %
05.07.2023 16:36 20,2 C 20,6 C 16,7 C 68 % 1012,4 hPa 0,0 l/m 0 min 0 min 333 W/m 38,6 km/h (5 Bft) 97,87 %
05.07.2023 16:38 20,2 C 21,1 C 16,7 C 66 % 1012,3 hPa 0,0 l/m 0 min 0 min 331 W/m 25,7 km/h (4 Bft) 93,62 %
05.07.2023 16:40 20,4 C 21,1 C 16,7 C 66 % 1012,3 hPa 0,0 l/m 0 min 0 min 323 W/m 29,0 km/h (5 Bft) 95,74 %
05.07.2023 16:42 20,3 C 20,6 C 16,7 C 66 % 1012,3 hPa 0,0 l/m 0 min 0 min 216 W/m 25,7 km/h (4 Bft) 95,65 %
05.07.2023 16:44 20,3 C 20,0 C 16,7 C 66 % 1012,2 hPa 0,0 l/m 0 min 0 min 137 W/m 25,7 km/h (4 Bft) 93,62 %
05.07.2023 16:46 20,2 C 19,4 C 16,1 C 66 % 1012,3 hPa 0,0 l/m 0 min 0 min 81 W/m 25,7 km/h (4 Bft) 95,74 %
05.07.2023 16:48 20,2 C 19,4 C 16,1 C 67 % 1012,3 hPa 0,0 l/m 0 min 0 min 54 W/m 12,9 km/h (3 Bft) 93,62 %
05.07.2023 16:50 20,2 C 19,4 C 16,1 C 67 % 1012,5 hPa 0,0 l/m 0 min 0 min 61 W/m 12,9 km/h (3 Bft) 95,74 %
05.07.2023 16:52 20,1 C 19,4 C 16,1 C 68 % 1012,5 hPa 0,0 l/m 0 min 0 min 107 W/m 16,1 km/h (3 Bft) 97,87 %
05.07.2023 16:54 20,0 C 19,4 C 16,1 C 69 % 1012,5 hPa 0,0 l/m 0 min 0 min 141 W/m 12,9 km/h (3 Bft) 97,83 %
05.07.2023 16:56 19,9 C 19,4 C 16,1 C 70 % 1012,5 hPa 0,0 l/m 0 min 0 min 128 W/m 25,7 km/h (4 Bft) 97,87 %
05.07.2023 16:58 19,9 C 18,9 C 15,6 C 70 % 1012,6 hPa 0,0 l/m 0 min 2 min 87 W/m 16,1 km/h (3 Bft) 95,74 %
05.07.2023 17:00 19,8 C 18,9 C 15,6 C 70 % 1012,5 hPa 0,0 l/m 0 min 0 min 66 W/m 22,5 km/h (4 Bft) 95,74 %
05.07.2023 17:02 19,7 C 18,9 C 15,6 C 70 % 1012,5 hPa 0,0 l/m 0 min 0 min 86 W/m 12,9 km/h (3 Bft) 100,00 %
05.07.2023 17:04 19,7 C 18,9 C 15,6 C 70 % 1012,5 hPa 0,0 l/m 0 min 0 min 155 W/m 35,4 km/h (5 Bft) 100,00 %
05.07.2023 17:06 19,6 C 19,4 C 15,6 C 71 % 1012,4 hPa 0,0 l/m 0 min 0 min 239 W/m 22,5 km/h (4 Bft) 100,00 %
05.07.2023 17:08 19,7 C 20,0 C 16,1 C 71 % 1012,4 hPa 0,0 l/m 2 min 0 min 339 W/m 22,5 km/h (4 Bft) 100,00 %
05.07.2023 17:10 19,8 C 20,6 C 16,1 C 71 % 1012,4 hPa 0,0 l/m 0 min 0 min 305 W/m 16,1 km/h (3 Bft) 100,00 %
05.07.2023 17:12 20,1 C 20,6 C 16,1 C 70 % 1012,4 hPa 0,0 l/m 0 min 0 min 282 W/m 22,5 km/h (4 Bft) 100,00 %
05.07.2023 17:14 20,1 C 20,0 C 16,1 C 68 % 1012,5 hPa 0,0 l/m 0 min 0 min 213 W/m 38,6 km/h (5 Bft) 95,74 %
05.07.2023 17:16 20,1 C 20,0 C 16,1 C 68 % 1012,6 hPa 0,0 l/m 0 min 0 min 171 W/m 38,6 km/h (5 Bft) 100,00 %
05.07.2023 17:18 20,0 C 19,4 C 16,1 C 68 % 1012,6 hPa 0,0 l/m 0 min 0 min 150 W/m 22,5 km/h (4 Bft) 100,00 %
05.07.2023 17:20 19,9 C 19,4 C 16,1 C 69 % 1012,6 hPa 0,0 l/m 0 min 0 min 144 W/m 22,5 km/h (4 Bft) 100,00 %
05.07.2023 17:22 19,9 C 19,4 C 16,1 C 69 % 1012,7 hPa 0,0 l/m 0 min 0 min 137 W/m 25,7 km/h (4 Bft) 100,00 %
05.07.2023 17:24 19,8 C 19,4 C 16,1 C 70 % 1012,8 hPa 0,0 l/m 0 min 0 min 151 W/m 29,0 km/h (5 Bft) 97,87 %
05.07.2023 17:26 19,7 C 19,4 C 16,1 C 70 % 1012,8 hPa 0,0 l/m 0 min 0 min 169 W/m 32,2 km/h (5 Bft) 100,00 %
05.07.2023 17:28 19,6 C 19,4 C 16,1 C 69 % 1012,7 hPa 0,0 l/m 0 min 0 min 204 W/m 35,4 km/h (5 Bft) 97,87 %
05.07.2023 17:30 19,6 C 20,0 C 16,1 C 69 % 1012,7 hPa 0,0 l/m 0 min 0 min 277 W/m 41,8 km/h (6 Bft) 100,00 %
05.07.2023 17:32 19,7 C 20,0 C 16,1 C 69 % 1012,9 hPa 0,0 l/m 0 min 0 min 283 W/m 32,2 km/h (5 Bft) 100,00 %
05.07.2023 17:34 19,7 C 20,0 C 16,1 C 69 % 1012,7 hPa 0,0 l/m 0 min 0 min 237 W/m 38,6 km/h (5 Bft) 98,11 %
05.07.2023 17:36 19,7 C 20,0 C 16,1 C 69 % 1012,8 hPa 0,0 l/m 0 min 0 min 242 W/m 41,8 km/h (6 Bft) 100,00 %
05.07.2023 17:38 19,7 C 20,0 C 16,1 C 69 % 1012,8 hPa 0,0 l/m 0 min 0 min 222 W/m 32,2 km/h (5 Bft) 100,00 %
05.07.2023 17:40 19,7 C 19,4 C 16,1 C 68 % 1012,8 hPa 0,0 l/m 0 min 0 min 186 W/m 29,0 km/h (5 Bft) 100,00 %
05.07.2023 17:42 19,7 C 19,4 C 16,1 C 68 % 1012,8 hPa 0,0 l/m 0 min 0 min 189 W/m 29,0 km/h (5 Bft) 100,00 %
05.07.2023 17:44 19,7 C 19,4 C 16,1 C 69 % 1012,9 hPa 0,0 l/m 0 min 0 min 237 W/m 32,2 km/h (5 Bft) 100,00 %
05.07.2023 17:46 19,7 C 20,6 C 16,1 C 69 % 1013,0 hPa 0,0 l/m 2 min 0 min 320 W/m 54,7 km/h (7 Bft) 100,00 %
05.07.2023 17:48 19,8 C 21,1 C 16,1 C 69 % 1012,8 hPa 0,0 l/m 2 min 0 min 330 W/m 25,7 km/h (4 Bft) 100,00 %
05.07.2023 17:50 20,1 C 22,8 C 16,7 C 68 % 1012,9 hPa 0,0 l/m 2 min 0 min 661 W/m 35,4 km/h (5 Bft) 100,00 %
05.07.2023 17:52 20,3 C 23,3 C 16,7 C 68 % 1012,9 hPa 0,0 l/m 2 min 0 min 683 W/m 48,3 km/h (6 Bft) 100,00 %
05.07.2023 17:54 20,6 C 23,3 C 16,7 C 67 % 1012,9 hPa 0,0 l/m 2 min 0 min 674 W/m 22,5 km/h (4 Bft) 100,00 %
05.07.2023 17:56 20,7 C 23,3 C 17,2 C 67 % 1012,9 hPa 0,0 l/m 2 min 0 min 637 W/m 25,7 km/h (4 Bft) 97,87 %
05.07.2023 17:58 20,8 C 22,8 C 17,2 C 67 % 1013,0 hPa 0,0 l/m 2 min 0 min 608 W/m 41,8 km/h (6 Bft) 100,00 %
05.07.2023 18:00 20,6 C 21,1 C 16,7 C 67 % 1012,9 hPa 0,0 l/m 2 min 0 min 272 W/m 29,0 km/h (5 Bft) 100,00 %
05.07.2023 18:02 20,4 C 20,6 C 16,7 C 67 % 1013,1 hPa 0,0 l/m 0 min 0 min 149 W/m 35,4 km/h (5 Bft) 100,00 %
05.07.2023 18:04 20,0 C 19,4 C 16,1 C 68 % 1013,1 hPa 0,0 l/m 0 min 0 min 132 W/m 41,8 km/h (6 Bft) 100,00 %
05.07.2023 18:08 19,6 C 18,9 C 15,6 C 70 % 1013,1 hPa 0,0 l/m 0 min 0 min 125 W/m 32,2 km/h (5 Bft) 98,06 %
05.07.2023 18:10 19,5 C 18,9 C 15,6 C 71 % 1013,0 hPa 0,0 l/m 0 min 0 min 93 W/m 25,7 km/h (4 Bft) 100,00 %
05.07.2023 18:12 19,4 C 18,9 C 15,6 C 71 % 1013,2 hPa 0,0 l/m 0 min 0 min 81 W/m 38,6 km/h (5 Bft) 97,87 %
05.07.2023 18:14 19,4 C 18,9 C 15,6 C 72 % 1013,2 hPa 0,0 l/m 0 min 0 min 74 W/m 19,3 km/h (3 Bft) 97,87 %
05.07.2023 18:16 19,3 C 18,9 C 15,6 C 72 % 1013,3 hPa 0,0 l/m 0 min 0 min 73 W/m 32,2 km/h (5 Bft) 97,87 %
05.07.2023 18:18 19,3 C 18,3 C 15,0 C 72 % 1013,4 hPa 0,0 l/m 0 min 0 min 74 W/m 25,7 km/h (4 Bft) 97,87 %
05.07.2023 18:20 19,3 C 17,8 C 14,4 C 74 % 1013,4 hPa 0,0 l/m 0 min 2 min 75 W/m 32,2 km/h (5 Bft) 95,74 %
05.07.2023 18:22 19,1 C 17,2 C 13,9 C 76 % 1013,5 hPa 0,0 l/m 0 min 2 min 69 W/m 77,2 km/h (9 Bft) 97,83 %
05.07.2023 18:24 18,8 C 16,7 C 12,8 C 76 % 1013,7 hPa 0,0 l/m 0 min 2 min 59 W/m 41,8 km/h (6 Bft) 97,87 %
05.07.2023 18:26 18,5 C 16,7 C 12,2 C 77 % 1013,7 hPa 0,0 l/m 0 min 2 min 46 W/m 29,0 km/h (5 Bft) 95,74 %
05.07.2023 18:28 18,2 C 16,7 C 12,2 C 79 % 1013,7 hPa 0,0 l/m 0 min 2 min 38 W/m 25,7 km/h (4 Bft) 97,87 %
05.07.2023 18:30 17,9 C 16,1 C 11,7 C 81 % 1014,2 hPa 0,2 l/m 0 min 2 min 38 W/m 32,2 km/h (5 Bft) 97,87 %
05.07.2023 18:32 17,6 C 15,6 C 11,7 C 82 % 1014,0 hPa 0,0 l/m 0 min 2 min 37 W/m 16,1 km/h (3 Bft) 95,74 %
05.07.2023 18:34 17,4 C 15,0 C 11,1 C 84 % 1014,1 hPa 0,2 l/m 0 min 2 min 40 W/m 19,3 km/h (3 Bft) 97,87 %
05.07.2023 18:36 17,1 C 15,0 C 11,1 C 85 % 1014,0 hPa 0,0 l/m 0 min 2 min 44 W/m 22,5 km/h (4 Bft) 93,48 %
05.07.2023 18:38 16,8 C 15,0 C 11,1 C 86 % 1014,1 hPa 0,0 l/m 0 min 2 min 51 W/m 22,5 km/h (4 Bft) 95,74 %
05.07.2023 18:40 16,6 C 14,4 C 10,6 C 87 % 1014,2 hPa 0,0 l/m 0 min 2 min 57 W/m 19,3 km/h (3 Bft) 95,74 %
05.07.2023 18:42 16,4 C 15,0 C 10,6 C 87 % 1014,1 hPa 0,0 l/m 0 min 2 min 60 W/m 12,9 km/h (3 Bft) 95,74 %
05.07.2023 18:44 16,3 C 15,0 C 10,6 C 88 % 1014,1 hPa 0,2 l/m 0 min 2 min 58 W/m 16,1 km/h (3 Bft) 95,74 %
05.07.2023 18:46 16,1 C 15,0 C 10,6 C 88 % 1014,1 hPa 0,0 l/m 0 min 2 min 60 W/m 22,5 km/h (4 Bft) 95,74 %
05.07.2023 18:48 16,0 C 15,0 C 10,6 C 88 % 1014,0 hPa 0,0 l/m 0 min 0 min 65 W/m 12,9 km/h (3 Bft) 93,62 %
05.07.2023 18:50 16,0 C 15,0 C 10,6 C 88 % 1013,9 hPa 0,0 l/m 0 min 0 min 70 W/m 12,9 km/h (3 Bft) 95,65 %
05.07.2023 18:52 15,9 C 15,0 C 10,6 C 88 % 1013,8 hPa 0,0 l/m 0 min 0 min 76 W/m 16,1 km/h (3 Bft) 95,74 %
05.07.2023 18:54 15,9 C 15,0 C 10,6 C 88 % 1013,8 hPa 0,0 l/m 0 min 0 min 89 W/m 19,3 km/h (3 Bft) 95,74 %
05.07.2023 18:56 15,9 C 16,1 C 11,1 C 89 % 1013,9 hPa 0,0 l/m 0 min 0 min 166 W/m 12,9 km/h (3 Bft) 98,00 %
05.07.2023 18:58 16,0 C 17,8 C 11,1 C 89 % 1013,9 hPa 0,0 l/m 2 min 0 min 398 W/m 12,9 km/h (3 Bft) 94,29 %
05.07.2023 19:00 16,2 C 18,9 C 11,7 C 90 % 1013,8 hPa 0,0 l/m 2 min 0 min 470 W/m 12,9 km/h (3 Bft) 97,87 %
05.07.2023 19:02 16,5 C 20,0 C 11,7 C 90 % 1013,9 hPa 0,0 l/m 2 min 0 min 479 W/m 9,7 km/h (2 Bft) 95,74 %
05.07.2023 19:04 16,8 C 20,6 C 12,2 C 90 % 1013,9 hPa 0,0 l/m 2 min 0 min 415 W/m 12,9 km/h (3 Bft) 93,75 %
05.07.2023 19:06 17,0 C 20,6 C 12,2 C 89 % 1013,8 hPa 0,0 l/m 2 min 0 min 348 W/m 12,9 km/h (3 Bft) 93,10 %
05.07.2023 19:08 17,1 C 20,0 C 11,7 C 88 % 1013,8 hPa 0,0 l/m 2 min 0 min 259 W/m 12,9 km/h (3 Bft) 97,14 %
05.07.2023 19:10 17,1 C 19,4 C 11,7 C 87 % 1013,8 hPa 0,0 l/m 0 min 0 min 133 W/m 6,4 km/h (2 Bft) 95,74 %
05.07.2023 19:12 17,1 C 19,4 C 11,7 C 87 % 1013,8 hPa 0,0 l/m 2 min 0 min 303 W/m 19,3 km/h (3 Bft) 93,62 %
05.07.2023 19:14 17,1 C 18,3 C 11,7 C 86 % 1013,8 hPa 0,0 l/m 0 min 0 min 173 W/m 19,3 km/h (3 Bft) 95,74 %
05.07.2023 19:16 17,1 C 17,2 C 11,1 C 85 % 1013,8 hPa 0,0 l/m 0 min 0 min 61 W/m 12,9 km/h (3 Bft) 95,74 %
05.07.2023 19:18 17,0 C 16,7 C 11,1 C 85 % 1013,7 hPa 0,0 l/m 0 min 0 min 57 W/m 22,5 km/h (4 Bft) 95,74 %
05.07.2023 19:20 17,0 C 16,7 C 11,1 C 85 % 1013,8 hPa 0,0 l/m 0 min 0 min 57 W/m 12,9 km/h (3 Bft) 95,74 %
05.07.2023 19:22 16,9 C 16,7 C 11,1 C 85 % 1013,8 hPa 0,0 l/m 0 min 0 min 64 W/m 25,7 km/h (4 Bft) 95,65 %
05.07.2023 19:24 16,9 C 16,7 C 11,1 C 85 % 1013,8 hPa 0,0 l/m 0 min 0 min 78 W/m 9,7 km/h (2 Bft) 93,62 %
05.07.2023 19:26 16,9 C 16,1 C 11,1 C 85 % 1013,7 hPa 0,0 l/m 0 min 0 min 81 W/m 16,1 km/h (3 Bft) 97,87 %
05.07.2023 19:28 16,8 C 16,1 C 11,1 C 85 % 1013,7 hPa 0,0 l/m 0 min 0 min 80 W/m 16,1 km/h (3 Bft) 97,87 %
05.07.2023 19:30 16,8 C 16,1 C 11,1 C 85 % 1013,8 hPa 0,0 l/m 0 min 0 min 87 W/m 19,3 km/h (3 Bft) 97,87 %
05.07.2023 19:32 16,8 C 16,1 C 11,1 C 85 % 1013,8 hPa 0,0 l/m 0 min 0 min 89 W/m 19,3 km/h (3 Bft) 97,87 %
05.07.2023 19:34 16,8 C 16,1 C 11,1 C 85 % 1013,8 hPa 0,0 l/m 0 min 0 min 83 W/m 9,7 km/h (2 Bft) 97,87 %
05.07.2023 19:36 16,7 C 16,1 C 11,1 C 85 % 1013,9 hPa 0,0 l/m 0 min 0 min 81 W/m 22,5 km/h (4 Bft) 97,83 %
05.07.2023 19:38 16,7 C 16,1 C 11,1 C 84 % 1013,8 hPa 0,0 l/m 0 min 0 min 77 W/m 16,1 km/h (3 Bft) 97,87 %
05.07.2023 19:40 16,7 C 16,1 C 11,1 C 84 % 1013,9 hPa 0,0 l/m 0 min 0 min 66 W/m 6,4 km/h (2 Bft) 97,87 %
05.07.2023 19:42 16,7 C 16,1 C 11,1 C 84 % 1014,0 hPa 0,0 l/m 0 min 0 min 59 W/m 6,4 km/h (2 Bft) 95,74 %
05.07.2023 19:44 16,8 C 16,1 C 11,1 C 85 % 1013,9 hPa 0,0 l/m 0 min 0 min 62 W/m 6,4 km/h (2 Bft) 97,87 %
05.07.2023 19:46 16,7 C 16,1 C 11,1 C 84 % 1014,0 hPa 0,0 l/m 0 min 0 min 62 W/m 12,9 km/h (3 Bft) 97,87 %
05.07.2023 19:48 16,8 C 16,1 C 11,1 C 85 % 1014,0 hPa 0,0 l/m 0 min 0 min 53 W/m 6,4 km/h (2 Bft) 97,83 %
05.07.2023 19:50 16,8 C 16,1 C 11,1 C 85 % 1014,0 hPa 0,0 l/m 0 min 0 min 50 W/m 12,9 km/h (3 Bft) 100,00 %
05.07.2023 19:52 16,8 C 16,1 C 11,1 C 85 % 1014,1 hPa 0,0 l/m 0 min 0 min 48 W/m 16,1 km/h (3 Bft) 100,00 %
05.07.2023 19:54 16,7 C 16,1 C 11,1 C 84 % 1014,1 hPa 0,0 l/m 0 min 0 min 46 W/m 16,1 km/h (3 Bft) 98,21 %
05.07.2023 19:56 16,7 C 16,1 C 11,1 C 84 % 1014,1 hPa 0,0 l/m 0 min 0 min 42 W/m 16,1 km/h (3 Bft) 100,00 %
05.07.2023 19:58 16,7 C 16,1 C 11,7 C 84 % 1014,1 hPa 0,0 l/m 0 min 0 min 41 W/m 16,1 km/h (3 Bft) 100,00 %
05.07.2023 20:00 16,8 C 16,1 C 11,7 C 84 % 1014,1 hPa 0,0 l/m 0 min 0 min 47 W/m 6,4 km/h (2 Bft) 100,00 %
05.07.2023 20:02 16,8 C 16,1 C 11,7 C 84 % 1014,0 hPa 0,0 l/m 0 min 0 min 60 W/m 12,9 km/h (3 Bft) 95,74 %
05.07.2023 20:04 16,8 C 16,1 C 11,7 C 84 % 1014,0 hPa 0,0 l/m 0 min 0 min 73 W/m 9,7 km/h (2 Bft) 100,00 %
05.07.2023 20:06 16,8 C 16,1 C 11,7 C 84 % 1014,0 hPa 0,0 l/m 0 min 0 min 75 W/m 6,4 km/h (2 Bft) 100,00 %
05.07.2023 20:08 16,8 C 16,1 C 12,2 C 84 % 1014,0 hPa 0,0 l/m 0 min 0 min 62 W/m 6,4 km/h (2 Bft) 100,00 %
05.07.2023 20:10 16,8 C 16,1 C 12,2 C 85 % 1014,0 hPa 0,0 l/m 0 min 0 min 50 W/m 6,4 km/h (2 Bft) 97,83 %
05.07.2023 20:12 16,8 C 16,1 C 12,8 C 85 % 1014,1 hPa 0,0 l/m 0 min 0 min 44 W/m 12,9 km/h (3 Bft) 97,87 %
05.07.2023 20:14 16,8 C 16,1 C 12,8 C 85 % 1014,1 hPa 0,0 l/m 0 min 0 min 49 W/m 9,7 km/h (2 Bft) 95,74 %
05.07.2023 20:16 16,8 C 16,1 C 12,8 C 85 % 1014,1 hPa 0,0 l/m 0 min 0 min 59 W/m 3,2 km/h (1 Bft) 97,87 %
05.07.2023 20:18 16,8 C 16,1 C 12,8 C 85 % 1014,1 hPa 0,0 l/m 0 min 0 min 68 W/m 16,1 km/h (3 Bft) 97,87 %
05.07.2023 20:20 16,8 C 16,1 C 12,8 C 85 % 1014,2 hPa 0,0 l/m 0 min 0 min 78 W/m 6,4 km/h (2 Bft) 97,87 %
05.07.2023 20:22 16,8 C 16,7 C 12,8 C 85 % 1014,2 hPa 0,0 l/m 0 min 0 min 83 W/m 6,4 km/h (2 Bft) 97,87 %
05.07.2023 20:24 16,8 C 16,7 C 12,8 C 85 % 1014,2 hPa 0,0 l/m 0 min 0 min 70 W/m 6,4 km/h (2 Bft) 97,83 %
05.07.2023 20:26 16,9 C 16,7 C 12,8 C 85 % 1014,2 hPa 0,0 l/m 0 min 0 min 55 W/m 6,4 km/h (2 Bft) 97,87 %
05.07.2023 20:28 16,9 C 16,7 C 12,8 C 85 % 1014,3 hPa 0,0 l/m 0 min 0 min 51 W/m 3,2 km/h (1 Bft) 97,87 %
05.07.2023 20:30 16,8 C 16,1 C 12,8 C 85 % 1014,3 hPa 0,0 l/m 0 min 0 min 48 W/m 9,7 km/h (2 Bft) 97,87 %
05.07.2023 20:32 16,8 C 16,1 C 12,8 C 85 % 1014,3 hPa 0,0 l/m 0 min 0 min 46 W/m 6,4 km/h (2 Bft) 97,87 %
05.07.2023 20:34 16,8 C 16,1 C 12,8 C 85 % 1014,3 hPa 0,0 l/m 0 min 0 min 44 W/m 3,2 km/h (1 Bft) 97,87 %
05.07.2023 20:36 16,8 C 16,1 C 12,8 C 85 % 1014,3 hPa 0,0 l/m 0 min 0 min 45 W/m 6,4 km/h (2 Bft) 97,87 %
05.07.2023 20:38 16,8 C 16,1 C 12,8 C 85 % 1014,3 hPa 0,0 l/m 0 min 0 min 47 W/m 6,4 km/h (2 Bft) 97,83 %
05.07.2023 20:40 16,8 C 16,1 C 12,8 C 85 % 1014,3 hPa 0,0 l/m 0 min 0 min 41 W/m 12,9 km/h (3 Bft) 100,00 %
05.07.2023 20:42 16,8 C 16,1 C 12,8 C 84 % 1014,2 hPa 0,0 l/m 0 min 0 min 35 W/m 9,7 km/h (2 Bft) 97,87 %
05.07.2023 20:44 16,8 C 16,1 C 12,8 C 84 % 1014,3 hPa 0,0 l/m 0 min 0 min 30 W/m 16,1 km/h (3 Bft) 100,00 %
05.07.2023 20:46 16,8 C 16,1 C 12,8 C 84 % 1014,3 hPa 0,0 l/m 0 min 0 min 23 W/m 6,4 km/h (2 Bft) 100,00 %
05.07.2023 20:48 16,9 C 16,1 C 12,8 C 84 % 1014,3 hPa 0,0 l/m 0 min 0 min 18 W/m 12,9 km/h (3 Bft) 100,00 %
05.07.2023 20:50 16,9 C 16,7 C 13,3 C 84 % 1014,3 hPa 0,0 l/m 0 min 0 min 19 W/m 12,9 km/h (3 Bft) 100,00 %
05.07.2023 20:52 16,9 C 16,7 C 13,3 C 84 % 1014,3 hPa 0,0 l/m 0 min 0 min 22 W/m 6,4 km/h (2 Bft) 100,00 %
05.07.2023 20:54 16,9 C 16,7 C 13,3 C 84 % 1014,3 hPa 0,0 l/m 0 min 0 min 24 W/m 3,2 km/h (1 Bft) 97,87 %
05.07.2023 20:56 16,9 C 16,7 C 13,3 C 84 % 1014,4 hPa 0,0 l/m 0 min 0 min 25 W/m 19,3 km/h (3 Bft) 100,00 %
05.07.2023 20:58 17,0 C 16,7 C 13,3 C 84 % 1014,4 hPa 0,0 l/m 0 min 0 min 25 W/m 12,9 km/h (3 Bft) 100,00 %
05.07.2023 21:00 17,0 C 16,7 C 12,8 C 84 % 1014,5 hPa 0,0 l/m 0 min 0 min 25 W/m 12,9 km/h (3 Bft) 97,87 %
05.07.2023 21:02 17,0 C 16,1 C 12,8 C 84 % 1014,5 hPa 0,0 l/m 0 min 0 min 27 W/m 3,2 km/h (1 Bft) 97,87 %
05.07.2023 21:04 17,0 C 16,1 C 12,8 C 84 % 1014,5 hPa 0,0 l/m 0 min 0 min 29 W/m 6,4 km/h (2 Bft) 100,00 %
05.07.2023 21:06 17,1 C 16,1 C 12,8 C 84 % 1014,6 hPa 0,0 l/m 0 min 0 min 29 W/m 6,4 km/h (2 Bft) 100,00 %
05.07.2023 21:08 17,0 C 16,1 C 12,8 C 84 % 1014,6 hPa 0,0 l/m 0 min 0 min 26 W/m 3,2 km/h (1 Bft) 100,00 %
05.07.2023 21:10 17,0 C 16,1 C 12,8 C 84 % 1014,6 hPa 0,0 l/m 0 min 0 min 24 W/m 3,2 km/h (1 Bft) 100,00 %
05.07.2023 21:12 17,0 C 16,1 C 12,8 C 85 % 1014,6 hPa 0,0 l/m 0 min 0 min 23 W/m 0,0 km/h (0 Bft) 97,87 %
05.07.2023 21:14 17,0 C 16,1 C 12,8 C 85 % 1014,6 hPa 0,0 l/m 0 min 2 min 24 W/m 0,0 km/h (0 Bft) 100,00 %
05.07.2023 21:16 17,0 C 16,1 C 12,8 C 85 % 1014,6 hPa 0,0 l/m 0 min 0 min 27 W/m 0,0 km/h (0 Bft) 100,00 %
05.07.2023 21:18 16,9 C 16,1 C 12,8 C 85 % 1014,7 hPa 0,0 l/m 2 min 0 min 30 W/m 3,2 km/h (1 Bft) 100,00 %
05.07.2023 21:20 16,9 C 16,1 C 12,8 C 85 % 1014,7 hPa 0,0 l/m 2 min 0 min 28 W/m 6,4 km/h (2 Bft) 100,00 %
05.07.2023 21:22 16,9 C 16,1 C 12,8 C 85 % 1014,8 hPa 0,0 l/m 0 min 0 min 24 W/m 6,4 km/h (2 Bft) 95,74 %
05.07.2023 21:24 16,9 C 16,1 C 12,8 C 86 % 1014,8 hPa 0,0 l/m 0 min 0 min 18 W/m 12,9 km/h (3 Bft) 97,87 %
05.07.2023 21:26 16,9 C 16,1 C 12,8 C 86 % 1014,8 hPa 0,0 l/m 0 min 0 min 12 W/m 6,4 km/h (2 Bft) 97,87 %
05.07.2023 21:28 16,8 C 16,1 C 12,8 C 86 % 1014,8 hPa 0,0 l/m 0 min 0 min 9 W/m 9,7 km/h (2 Bft) 97,87 %
05.07.2023 21:30 16,9 C 16,1 C 12,8 C 86 % 1014,8 hPa 0,0 l/m 0 min 0 min 8 W/m 3,2 km/h (1 Bft) 97,87 %
05.07.2023 21:32 16,9 C 16,1 C 12,8 C 86 % 1014,8 hPa 0,0 l/m 0 min 0 min 5 W/m 12,9 km/h (3 Bft) 97,87 %
05.07.2023 21:34 16,9 C 16,1 C 12,8 C 86 % 1014,8 hPa 0,0 l/m 0 min 0 min 6 W/m 3,2 km/h (1 Bft) 97,83 %
05.07.2023 21:36 16,9 C 16,1 C 12,8 C 86 % 1015,0 hPa 0,0 l/m 0 min 0 min 8 W/m 9,7 km/h (2 Bft) 97,87 %
05.07.2023 21:38 16,9 C 16,1 C 12,8 C 86 % 1015,0 hPa 0,0 l/m 0 min 0 min 9 W/m 3,2 km/h (1 Bft) 97,87 %
05.07.2023 21:40 16,9 C 16,1 C 12,8 C 86 % 1015,0 hPa 0,0 l/m 0 min 0 min 7 W/m 3,2 km/h (1 Bft) 97,87 %
05.07.2023 21:42 16,9 C 16,1 C 12,8 C 86 % 1015,1 hPa 0,0 l/m 0 min 0 min 6 W/m 3,2 km/h (1 Bft) 97,87 %
05.07.2023 21:44 16,9 C 16,1 C 12,8 C 86 % 1015,1 hPa 0,0 l/m 0 min 0 min 5 W/m 6,4 km/h (2 Bft) 97,87 %
05.07.2023 21:46 16,9 C 16,1 C 12,8 C 86 % 1015,2 hPa 0,0 l/m 0 min 0 min 0 W/m 9,7 km/h (2 Bft) 95,65 %
05.07.2023 21:48 16,9 C 16,1 C 12,8 C 86 % 1015,2 hPa 0,0 l/m 0 min 0 min 0 W/m 6,4 km/h (2 Bft) 97,87 %
05.07.2023 21:50 16,8 C 16,1 C 12,8 C 86 % 1015,2 hPa 0,0 l/m 0 min 0 min 0 W/m 6,4 km/h (2 Bft) 97,87 %
05.07.2023 21:52 16,8 C 16,1 C 12,8 C 86 % 1015,2 hPa 0,0 l/m 0 min 0 min 0 W/m 6,4 km/h (2 Bft) 97,87 %
05.07.2023 21:54 16,8 C 16,1 C 12,8 C 86 % 1015,3 hPa 0,0 l/m 0 min 0 min 0 W/m 6,4 km/h (2 Bft) 95,74 %
05.07.2023 21:56 16,7 C 15,6 C 12,8 C 86 % 1015,3 hPa 0,0 l/m 0 min 0 min 0 W/m 6,4 km/h (2 Bft) 93,62 %
05.07.2023 21:58 16,7 C 16,1 C 12,8 C 86 % 1015,3 hPa 0,0 l/m 0 min 0 min 0 W/m 6,4 km/h (2 Bft) 93,48 %
05.07.2023 22:00 16,7 C 16,1 C 12,8 C 87 % 1015,3 hPa 0,0 l/m 0 min 0 min 0 W/m 6,4 km/h (2 Bft) 95,74 %
05.07.2023 22:02 16,7 C 16,1 C 12,8 C 87 % 1015,4 hPa 0,0 l/m 0 min 0 min 0 W/m 3,2 km/h (1 Bft) 95,74 %
05.07.2023 22:04 16,7 C 16,1 C 12,8 C 87 % 1015,4 hPa 0,0 l/m 0 min 0 min 0 W/m 6,4 km/h (2 Bft) 96,00 %
05.07.2023 22:06 16,7 C 16,1 C 12,8 C 87 % 1015,5 hPa 0,0 l/m 0 min 0 min 0 W/m 6,4 km/h (2 Bft) 93,75 %
05.07.2023 22:08 16,7 C 16,1 C 12,8 C 87 % 1015,4 hPa 0,0 l/m 0 min 0 min 0 W/m 9,7 km/h (2 Bft) 93,62 %
05.07.2023 22:10 16,7 C 16,1 C 12,8 C 87 % 1015,5 hPa 0,0 l/m 0 min 0 min 0 W/m 6,4 km/h (2 Bft) 93,48 %
05.07.2023 22:12 16,7 C 15,6 C 12,8 C 87 % 1015,5 hPa 0,0 l/m 0 min 0 min 0 W/m 6,4 km/h (2 Bft) 95,74 %
05.07.2023 22:14 16,6 C 15,6 C 12,8 C 87 % 1015,6 hPa 0,0 l/m 0 min 0 min 0 W/m 3,2 km/h (1 Bft) 93,62 %
05.07.2023 22:16 16,6 C 15,6 C 12,8 C 87 % 1015,6 hPa 0,0 l/m 0 min 0 min 0 W/m 6,4 km/h (2 Bft) 93,62 %
05.07.2023 22:18 16,6 C 15,6 C 12,2 C 87 % 1015,6 hPa 0,0 l/m 0 min 0 min 0 W/m 6,4 km/h (2 Bft) 95,74 %
05.07.2023 22:20 16,5 C 15,6 C 12,2 C 87 % 1015,6 hPa 0,0 l/m 0 min 0 min 0 W/m 16,1 km/h (3 Bft) 95,74 %
05.07.2023 22:22 16,4 C 15,6 C 12,2 C 87 % 1015,6 hPa 0,0 l/m 0 min 0 min 0 W/m 6,4 km/h (2 Bft) 91,49 %
05.07.2023 22:24 16,4 C 15,6 C 12,2 C 86 % 1015,6 hPa 0,0 l/m 0 min 0 min 0 W/m 9,7 km/h (2 Bft) 93,48 %
05.07.2023 22:26 16,3 C 15,6 C 12,2 C 86 % 1015,6 hPa 0,0 l/m 0 min 0 min 0 W/m 6,4 km/h (2 Bft) 93,62 %
05.07.2023 22:28 16,3 C 15,6 C 12,2 C 86 % 1015,7 hPa 0,0 l/m 0 min 0 min 0 W/m 3,2 km/h (1 Bft) 95,74 %
05.07.2023 22:30 16,3 C 15,6 C 12,2 C 86 % 1015,7 hPa 0,0 l/m 0 min 0 min 0 W/m 6,4 km/h (2 Bft) 93,62 %
05.07.2023 22:32 16,2 C 15,6 C 12,2 C 86 % 1015,7 hPa 0,0 l/m 0 min 0 min 0 W/m 6,4 km/h (2 Bft) 95,74 %
05.07.2023 22:34 16,2 C 15,6 C 12,2 C 86 % 1015,7 hPa 0,0 l/m 0 min 0 min 0 W/m 6,4 km/h (2 Bft) 97,87 %
05.07.2023 22:36 16,2 C 15,0 C 12,2 C 86 % 1015,7 hPa 0,0 l/m 0 min 0 min 0 W/m 3,2 km/h (1 Bft) 97,87 %
05.07.2023 22:38 16,2 C 15,0 C 12,2 C 86 % 1015,8 hPa 0,0 l/m 0 min 0 min 0 W/m 6,4 km/h (2 Bft) 97,83 %
05.07.2023 22:40 16,1 C 15,0 C 11,7 C 86 % 1015,7 hPa 0,0 l/m 0 min 0 min 0 W/m 6,4 km/h (2 Bft) 97,87 %
05.07.2023 22:42 16,1 C 15,0 C 11,7 C 86 % 1015,7 hPa 0,0 l/m 0 min 0 min 0 W/m 6,4 km/h (2 Bft) 97,87 %
05.07.2023 22:44 16,0 C 15,0 C 11,7 C 86 % 1015,7 hPa 0,0 l/m 0 min 0 min 0 W/m 3,2 km/h (1 Bft) 97,87 %
05.07.2023 22:46 15,9 C 15,0 C 11,7 C 86 % 1015,7 hPa 0,0 l/m 0 min 0 min 0 W/m 6,4 km/h (2 Bft) 97,87 %
05.07.2023 22:48 15,9 C 15,0 C 11,7 C 86 % 1015,7 hPa 0,0 l/m 0 min 0 min 0 W/m 6,4 km/h (2 Bft) 95,74 %
05.07.2023 22:50 15,8 C 14,4 C 11,7 C 86 % 1015,8 hPa 0,0 l/m 0 min 0 min 0 W/m 9,7 km/h (2 Bft) 97,83 %
05.07.2023 22:52 15,8 C 14,4 C 11,7 C 86 % 1015,8 hPa 0,0 l/m 0 min 0 min 0 W/m 9,7 km/h (2 Bft) 97,87 %
05.07.2023 22:54 15,8 C 14,4 C 11,7 C 87 % 1015,8 hPa 0,0 l/m 0 min 0 min 0 W/m 6,4 km/h (2 Bft) 97,87 %
05.07.2023 22:56 15,7 C 14,4 C 11,7 C 87 % 1015,7 hPa 0,0 l/m 0 min 0 min 0 W/m 6,4 km/h (2 Bft) 97,87 %
05.07.2023 22:58 15,7 C 14,4 C 11,7 C 87 % 1015,8 hPa 0,0 l/m 0 min 0 min 0 W/m 3,2 km/h (1 Bft) 100,00 %
05.07.2023 23:00 15,7 C 14,4 C 11,7 C 87 % 1015,8 hPa 0,0 l/m 0 min 0 min 0 W/m 9,7 km/h (2 Bft) 100,00 %
05.07.2023 23:02 15,6 C 14,4 C 11,7 C 87 % 1015,8 hPa 0,0 l/m 0 min 0 min 0 W/m 6,4 km/h (2 Bft) 93,62 %
05.07.2023 23:04 15,6 C 14,4 C 11,1 C 87 % 1015,8 hPa 0,0 l/m 0 min 0 min 0 W/m 6,4 km/h (2 Bft) 97,83 %
05.07.2023 23:06 15,6 C 14,4 C 11,1 C 87 % 1015,9 hPa 0,0 l/m 0 min 0 min 0 W/m 12,9 km/h (3 Bft) 95,83 %
05.07.2023 23:12 15,4 C 13,9 C 11,1 C 87 % 1015,8 hPa 0,0 l/m 0 min 0 min 0 W/m 3,2 km/h (1 Bft) 100,00 %
05.07.2023 23:14 15,3 C 13,9 C 11,1 C 87 % 1015,8 hPa 0,0 l/m 0 min 0 min 0 W/m 3,2 km/h (1 Bft) 95,65 %
05.07.2023 23:16 15,3 C 13,9 C 11,1 C 87 % 1015,9 hPa 0,0 l/m 0 min 0 min 0 W/m 9,7 km/h (2 Bft) 100,00 %
05.07.2023 23:18 15,2 C 13,9 C 11,1 C 87 % 1015,9 hPa 0,0 l/m 0 min 0 min 0 W/m 6,4 km/h (2 Bft) 100,00 %
05.07.2023 23:20 15,2 C 13,9 C 11,1 C 88 % 1015,8 hPa 0,0 l/m 0 min 0 min 0 W/m 3,2 km/h (1 Bft) 100,00 %
05.07.2023 23:22 15,2 C 13,9 C 11,1 C 88 % 1015,9 hPa 0,0 l/m 0 min 0 min 0 W/m 0,0 km/h (0 Bft) 100,00 %
05.07.2023 23:24 15,1 C 13,9 C 11,1 C 88 % 1015,9 hPa 0,0 l/m 0 min 0 min 0 W/m 3,2 km/h (1 Bft) 100,00 %
05.07.2023 23:26 15,1 C 13,9 C 11,1 C 88 % 1015,9 hPa 0,0 l/m 0 min 0 min 0 W/m 3,2 km/h (1 Bft) 100,00 %
05.07.2023 23:28 15,1 C 13,9 C 11,1 C 88 % 1015,9 hPa 0,0 l/m 0 min 0 min 0 W/m 3,2 km/h (1 Bft) 100,00 %
05.07.2023 23:30 14,9 C 13,9 C 11,1 C 88 % 1015,9 hPa 0,0 l/m 0 min 0 min 0 W/m 3,2 km/h (1 Bft) 100,00 %
05.07.2023 23:32 14,9 C 13,9 C 11,1 C 88 % 1015,9 hPa 0,0 l/m 0 min 0 min 0 W/m 3,2 km/h (1 Bft) 97,87 %
05.07.2023 23:34 14,9 C 13,9 C 11,1 C 88 % 1015,9 hPa 0,0 l/m 0 min 0 min 0 W/m 6,4 km/h (2 Bft) 100,00 %
05.07.2023 23:36 14,8 C 13,9 C 10,6 C 88 % 1015,9 hPa 0,0 l/m 0 min 0 min 0 W/m 3,2 km/h (1 Bft) 100,00 %
05.07.2023 23:38 14,8 C 13,9 C 10,6 C 88 % 1015,9 hPa 0,0 l/m 0 min 0 min 0 W/m 3,2 km/h (1 Bft) 97,87 %
05.07.2023 23:40 14,8 C 13,9 C 10,6 C 88 % 1015,9 hPa 0,0 l/m 0 min 0 min 0 W/m 6,4 km/h (2 Bft) 100,00 %
05.07.2023 23:42 14,7 C 13,9 C 10,6 C 89 % 1015,9 hPa 0,0 l/m 0 min 0 min 0 W/m 3,2 km/h (1 Bft) 97,83 %
05.07.2023 23:44 14,7 C 13,9 C 10,6 C 89 % 1015,9 hPa 0,0 l/m 0 min 0 min 0 W/m 3,2 km/h (1 Bft) 97,87 %
05.07.2023 23:46 14,7 C 13,9 C 10,6 C 89 % 1015,9 hPa 0,0 l/m 0 min 0 min 0 W/m 6,4 km/h (2 Bft) 97,87 %
05.07.2023 23:48 14,6 C 13,3 C 10,6 C 89 % 1015,9 hPa 0,0 l/m 0 min 0 min 0 W/m 3,2 km/h (1 Bft) 97,87 %
05.07.2023 23:50 14,6 C 13,3 C 10,6 C 89 % 1015,9 hPa 0,0 l/m 0 min 0 min 0 W/m 3,2 km/h (1 Bft) 97,87 %
05.07.2023 23:52 14,6 C 13,3 C 10,6 C 89 % 1016,0 hPa 0,0 l/m 0 min 0 min 0 W/m 9,7 km/h (2 Bft) 97,87 %
05.07.2023 23:54 14,5 C 13,3 C 10,6 C 89 % 1015,9 hPa 0,0 l/m 0 min 0 min 0 W/m 6,4 km/h (2 Bft) 97,87 %
05.07.2023 23:56 14,5 C 13,3 C 10,6 C 89 % 1016,0 hPa 0,0 l/m 0 min 0 min 0 W/m 6,4 km/h (2 Bft) 95,65 %
05.07.2023 23:58 14,4 C 13,3 C 10,6 C 89 % 1016,0 hPa 0,0 l/m 0 min 0 min 0 W/m 3,2 km/h (1 Bft) 95,74 %
_ Min-Zeit 23:58 23:48 05:48 13:52 04:14 - - - - 00:20 03:04
Minimum _ 14,4 C 13,3 C 8,9 C 55 % 1004,7 hPa - - - - 0,0 km/h (0 Bft) 57,45 %
_ Max-Zeit 14:34 14:30 12:26 03:48 23:52 01:18 15:05 01:10 13:20 18:22 01:26
Maximum _ 21,5 C 26,1 C 20,6 C 96 % 1016,0 hPa 0,2 l/m 3 min 2 min 1153 W/m 77,2 km/h
S-SW (9 Bft)
100,00 %
Durchschnitt _ 17,3 C 17,1 C 13,2 C 79 % 1010,1 hPa #2,4 l/m #3:03 h #2:26 h 252 W/m 21,6 km/h (4 Bft) 97,45 %
© 2023 W. Hausmann